| time (UTC) | temp C | wind direction | speed KPH | gust KPH | rain 1hr cm | rain 24hr cm | rain mn cm | humidity % | barometer mb |
| 20260902232953 | 14 | 195 | 0.0 | 0.0 | 0.00 | 0.00 | 0.00 | 98 | 1018.8 |
| 20260902232946 | 14 | 195 | 0.0 | 0.0 | 0.00 | 0.00 | 0.00 | 98 | 1018.9 |
| 20260902232931 | 14 | 195 | 0.0 | 0.0 | 0.00 | 0.00 | 0.00 | 98 | 1019.1 |
| 20260902232914 | 14 | 202 | 0.0 | 0.0 | 0.00 | 0.00 | 0.00 | 98 | 1019.0 |
| 20260902232205 | 14 | 202 | 0.0 | 0.0 | 0.00 | 0.00 | 0.00 | 98 | 1018.9 |
| 20260902232105 | 14 | 202 | 0.0 | 0.0 | 0.00 | 0.00 | 0.00 | 98 | 1018.7 |
| 20260902232005 | 14 | 198 | 0.0 | 0.0 | 0.00 | 0.00 | 0.00 | 98 | 1019.0 |
| 20260902231907 | 14 | 198 | 0.0 | 0.0 | 0.00 | 0.00 | 0.00 | 98 | 1019.0 |
| 20260902231851 | 14 | 198 | 0.0 | 0.0 | 0.00 | 0.00 | 0.00 | 98 | 1019.1 |
| 20260902231833 | 14 | 202 | 0.0 | 0.0 | 0.00 | 0.00 | 0.00 | 98 | 1019.1 |
| 20260902231827 | 14 | 202 | 0.0 | 0.0 | 0.00 | 0.00 | 0.00 | 98 | 1019.0 |
| 20260902231454 | 14 | 195 | 0.0 | 0.0 | 0.00 | 0.00 | 0.00 | 98 | 1019.0 |
| 20260902231354 | 14 | 195 | 0.0 | 0.0 | 0.00 | 0.00 | 0.00 | 98 | 1019.1 |
| 20260902231253 | 14 | 195 | 0.0 | 0.0 | 0.00 | 0.00 | 0.00 | 98 | 1019.0 |
| 20260902231213 | 14 | 195 | 0.0 | 0.0 | 0.00 | 0.00 | 0.00 | 98 | 1019.0 |
| 20260902231153 | 14 | 195 | 0.0 | 0.0 | 0.00 | 0.00 | 0.00 | 98 | 1019.0 |
| 20260902231054 | 14 | 195 | 0.0 | 0.0 | 0.00 | 0.00 | 0.00 | 98 | 1018.9 |
| 20260902231026 | 13 | 195 | 0.0 | 0.0 | 0.00 | 0.00 | 0.00 | 98 | 1019.1 |
| 20260902231017 | 14 | 195 | 0.0 | 0.0 | 0.00 | 0.00 | 0.00 | 98 | 1019.1 |
| 20260902231002 | 14 | 195 | 0.0 | 0.0 | 0.00 | 0.00 | 0.00 | 99 | 1018.9 |
| 20260902230930 | 13 | 195 | 0.0 | 0.0 | 0.00 | 0.00 | 0.00 | 99 | 1019.0 |
| 20260902230922 | 13 | 195 | 0.0 | 0.0 | 0.00 | 0.00 | 0.00 | 99 | 1019.3 |
| 20260902230647 | 13 | 195 | 0.0 | 0.0 | 0.00 | 0.00 | 0.00 | 98 | 1019.2 |
| 20260902230631 | 13 | 195 | 0.0 | 0.0 | 0.00 | 0.00 | 0.00 | 98 | 1019.0 |
| 20260902230615 | 13 | 195 | 0.0 | 0.0 | 0.00 | 0.00 | 0.00 | 98 | 1019.1 |
| 20260902230348 | 13 | 195 | 0.0 | 0.0 | 0.00 | 0.00 | 0.00 | 98 | 1019.0 |
| 20260902230112 | 13 | 195 | 0.0 | 0.0 | 0.00 | 0.00 | 0.00 | 98 | 1019.0 |
| 20260902225755 | 13 | 195 | 0.0 | 0.0 | 0.00 | 0.00 | 0.00 | 98 | 1019.1 |
| 20260902225714 | 13 | 195 | 0.0 | 0.0 | 0.00 | 0.00 | 0.00 | 98 | 1019.1 |
| 20260902225655 | 13 | 195 | 0.0 | 0.0 | 0.00 | 0.00 | 0.00 | 98 | 1019.2 |
| 20260902225553 | 13 | 202 | 0.0 | 0.0 | 0.00 | 0.00 | 0.00 | 98 | 1019.1 |
| 20260902225531 | 13 | 202 | 0.0 | 0.0 | 0.00 | 0.00 | 0.00 | 98 | 1019.0 |
| 20260902225514 | 13 | 198 | 0.0 | 0.0 | 0.00 | 0.00 | 0.00 | 98 | 1019.2 |
| 20260902225214 | 13 | 195 | 0.0 | 0.0 | 0.00 | 0.00 | 0.00 | 98 | 1019.2 |
| 20260902225153 | 13 | 195 | 0.0 | 0.0 | 0.00 | 0.00 | 0.00 | 98 | 1019.0 |
| 20260902225052 | 13 | 195 | 0.0 | 0.0 | 0.00 | 0.00 | 0.00 | 98 | 1019.1 |
| 20260902224953 | 13 | 195 | 0.0 | 0.0 | 0.00 | 0.00 | 0.00 | 98 | 1019.1 |
| 20260902224857 | 13 | 195 | 0.0 | 0.0 | 0.00 | 0.00 | 0.00 | 98 | 1019.1 |
| 20260902224845 | 13 | 195 | 0.0 | 0.0 | 0.00 | 0.00 | 0.00 | 98 | 1019.1 |
| 20260902224819 | 13 | 195 | 0.0 | 0.0 | 0.00 | 0.00 | 0.00 | 98 | 1019.1 |
| 20260902224809 | 13 | 195 | 0.0 | 0.0 | 0.00 | 0.00 | 0.00 | 98 | 1019.1 |
| 20260902224748 | 13 | 195 | 0.0 | 0.0 | 0.00 | 0.00 | 0.00 | 98 | 1019.0 |
| 20260902224733 | 13 | 195 | 0.0 | 0.0 | 0.00 | 0.00 | 0.00 | 98 | 1019.3 |
| 20260902224716 | 13 | 195 | 0.0 | 0.0 | 0.00 | 0.00 | 0.00 | 98 | 1019.0 |
| 20260902224700 | 13 | 195 | 0.0 | 0.0 | 0.00 | 0.00 | 0.00 | 98 | 1019.1 |
| 20260902224433 | 13 | 195 | 0.0 | 0.0 | 0.00 | 0.00 | 0.00 | 98 | 1019.2 |
| 20260902224418 | 13 | 195 | 0.0 | 0.0 | 0.00 | 0.00 | 0.00 | 98 | 1019.1 |
| 20260902223905 | 13 | 195 | 0.0 | 0.0 | 0.00 | 0.00 | 0.00 | 97 | 1019.3 |
| 20260902223554 | 13 | 195 | 0.0 | 0.0 | 0.00 | 0.00 | 0.00 | 97 | 1019.1 |
| 20260902223453 | 13 | 195 | 0.0 | 0.0 | 0.00 | 0.00 | 0.00 | 97 | 1019.3 |
| 20260902223354 | 14 | 195 | 0.0 | 0.0 | 0.00 | 0.00 | 0.00 | 97 | 1019.1 |
| 20260902223238 | 14 | 195 | 0.0 | 0.0 | 0.00 | 0.00 | 0.00 | 97 | 1019.2 |
| 20260902223230 | 14 | 195 | 0.0 | 0.0 | 0.00 | 0.00 | 0.00 | 97 | 1019.3 |
| 20260902223214 | 14 | 195 | 0.0 | 0.0 | 0.00 | 0.00 | 0.00 | 97 | 1019.1 |
| 20260902222853 | 14 | 195 | 0.0 | 0.0 | 0.00 | 0.00 | 0.00 | 97 | 1019.2 |
| 20260902222805 | 14 | 195 | 0.0 | 0.0 | 0.00 | 0.00 | 0.00 | 96 | 1019.2 |
| 20260902222744 | 14 | 195 | 0.0 | 0.0 | 0.00 | 0.00 | 0.00 | 97 | 1019.1 |
| 20260902222735 | 14 | 195 | 0.0 | 0.0 | 0.00 | 0.00 | 0.00 | 97 | 1019.0 |
| 20260902222721 | 14 | 195 | 0.0 | 0.0 | 0.00 | 0.00 | 0.00 | 97 | 1019.1 |
| 20260902222705 | 14 | 195 | 0.0 | 0.0 | 0.00 | 0.00 | 0.00 | 97 | 1019.3 |
| 20260902222650 | 14 | 196 | 0.0 | 0.0 | 0.00 | 0.00 | 0.00 | 97 | 1019.3 |
| 20260902222414 | 14 | 196 | 0.0 | 0.0 | 0.00 | 0.00 | 0.00 | 97 | 1019.1 |
| 20260902222406 | 14 | 195 | 0.0 | 0.0 | 0.00 | 0.00 | 0.00 | 97 | 1018.9 |
| 20260902222350 | 14 | 195 | 0.0 | 0.0 | 0.00 | 0.00 | 0.00 | 97 | 1019.1 |
| 20260902222335 | 14 | 196 | 0.0 | 0.0 | 0.00 | 0.00 | 0.00 | 97 | 1019.2 |
| 20260902222320 | 14 | 196 | 0.0 | 0.0 | 0.00 | 0.00 | 0.00 | 97 | 1019.0 |
| 20260902222245 | 14 | 195 | 0.0 | 0.0 | 0.00 | 0.00 | 0.00 | 97 | 1019.2 |
| 20260902222237 | 14 | 195 | 0.0 | 0.0 | 0.00 | 0.00 | 0.00 | 97 | 1019.0 |
| 20260902222222 | 14 | 195 | 0.0 | 0.0 | 0.00 | 0.00 | 0.00 | 97 | 1019.2 |
| 20260902222206 | 14 | 195 | 0.0 | 0.0 | 0.00 | 0.00 | 0.00 | 97 | 1019.2 |
| 20260902222150 | 14 | 195 | 0.0 | 0.0 | 0.00 | 0.00 | 0.00 | 97 | 1018.9 |
| 20260902222122 | 14 | 195 | 0.0 | 0.0 | 0.00 | 0.00 | 0.00 | 97 | 1019.1 |
| 20260902222113 | 14 | 195 | 0.0 | 0.0 | 0.00 | 0.00 | 0.00 | 97 | 1019.0 |
| 20260902222058 | 14 | 195 | 0.0 | 0.0 | 0.00 | 0.00 | 0.00 | 97 | 1019.1 |
| 20260902221820 | 14 | 202 | 0.0 | 0.0 | 0.00 | 0.00 | 0.00 | 96 | 1019.0 |
| 20260902221750 | 14 | 195 | 0.0 | 0.0 | 0.00 | 0.00 | 0.00 | 96 | 1019.3 |
| 20260902221521 | 14 | 195 | 0.0 | 0.0 | 0.00 | 0.00 | 0.00 | 96 | 1019.1 |
| 20260902220809 | 14 | 195 | 0.0 | 0.0 | 0.00 | 0.00 | 0.00 | 96 | 1019.0 |
| 20260902220800 | 14 | 195 | 0.0 | 0.0 | 0.00 | 0.00 | 0.00 | 96 | 1019.2 |
| 20260902220744 | 14 | 195 | 0.0 | 0.0 | 0.00 | 0.00 | 0.00 | 96 | 1019.1 |
| 20260902220510 | 14 | 195 | 0.0 | 0.0 | 0.00 | 0.00 | 0.00 | 96 | 1019.3 |
| 20260902220021 | 14 | 195 | 0.0 | 0.0 | 0.00 | 0.00 | 0.00 | 96 | 1019.1 |
| 20260902220005 | 14 | 196 | 0.0 | 0.0 | 0.00 | 0.00 | 0.00 | 96 | 1019.2 |
| 20260902215948 | 14 | 196 | 0.0 | 0.0 | 0.00 | 0.00 | 0.00 | 95 | 1019.1 |
| 20260902215933 | 15 | 195 | 0.0 | 0.0 | 0.00 | 0.00 | 0.00 | 95 | 1019.3 |
| 20260902215701 | 15 | 196 | 0.0 | 0.0 | 0.00 | 0.00 | 0.00 | 95 | 1018.9 |
| 20260902215211 | 15 | 196 | 0.0 | 0.0 | 0.00 | 0.00 | 0.00 | 95 | 1019.1 |
| 20260902214714 | 15 | 196 | 0.0 | 0.0 | 0.00 | 0.00 | 0.00 | 96 | 1019.3 |
| 20260902214629 | 15 | 196 | 0.0 | 0.0 | 0.00 | 0.00 | 0.00 | 96 | 1019.1 |
| 20260902214528 | 15 | 196 | 0.0 | 0.0 | 0.00 | 0.00 | 0.00 | 96 | 1019.1 |
| 20260902214429 | 15 | 196 | 0.0 | 0.0 | 0.00 | 0.00 | 0.00 | 96 | 1019.1 |
| 20260902214329 | 15 | 196 | 0.0 | 1.6 | 0.00 | 0.00 | 0.00 | 96 | 1018.9 |
| 20260902214213 | 15 | 196 | 0.0 | 1.6 | 0.00 | 0.00 | 0.00 | 96 | 1019.1 |
| 20260902214129 | 15 | 196 | 0.0 | 1.6 | 0.00 | 0.00 | 0.00 | 96 | 1018.9 |
| 20260902214016 | 15 | 192 | 0.0 | 1.6 | 0.00 | 0.00 | 0.00 | 96 | 1018.9 |
| 20260902213951 | 14 | 198 | 0.0 | 0.0 | 0.00 | 0.00 | 0.00 | 98 | 1018.9 |
| 20260902213946 | 14 | 196 | 0.0 | 0.0 | 0.00 | 0.00 | 0.00 | 97 | 1019.1 |
| 20260902213941 | 15 | 196 | 0.0 | 0.0 | 0.00 | 0.00 | 0.00 | 97 | 1019.1 |
| 20260902213935 | 15 | 186 | 0.0 | 1.6 | 0.00 | 0.00 | 0.00 | 97 | 1019.1 |
| 20260902213918 | 15 | 188 | 0.0 | 1.6 | 0.00 | 0.00 | 0.00 | 97 | 1019.0 |
| 20260902213854 | 15 | 189 | 0.0 | 1.6 | 0.00 | 0.00 | 0.00 | 97 | 1019.1 |
| 20260902213839 | 15 | 181 | 0.0 | 1.6 | 0.00 | 0.00 | 0.00 | 97 | 1019.0 |
| 20260902213823 | 15 | 176 | 0.0 | 1.6 | 0.00 | 0.00 | 0.00 | 98 | 1019.2 |
| 20260902213547 | 14 | 189 | 0.0 | 0.0 | 0.00 | 0.00 | 0.00 | 98 | 1019.1 |
| 20260902213529 | 14 | 198 | 0.0 | 0.0 | 0.00 | 0.00 | 0.00 | 98 | 1018.9 |
| 20260902213303 | 14 | 195 | 0.0 | 0.0 | 0.00 | 0.00 | 0.00 | 98 | 1018.9 |
| 20260902213248 | 14 | 202 | 0.0 | 0.0 | 0.00 | 0.00 | 0.00 | 98 | 1019.0 |
| 20260902213232 | 14 | 196 | 0.0 | 0.0 | 0.00 | 0.00 | 0.00 | 98 | 1019.0 |
| 20260902213217 | 14 | 196 | 0.0 | 0.0 | 0.00 | 0.00 | 0.00 | 97 | 1018.9 |
| 20260902212729 | 14 | 196 | 0.0 | 0.0 | 0.00 | 0.00 | 0.00 | 97 | 1019.1 |
| 20260902212713 | 14 | 196 | 0.0 | 0.0 | 0.00 | 0.00 | 0.00 | 97 | 1019.1 |
| 20260902212656 | 14 | 196 | 0.0 | 0.0 | 0.00 | 0.00 | 0.00 | 97 | 1018.8 |
| 20260902212641 | 14 | 196 | 0.0 | 0.0 | 0.00 | 0.00 | 0.00 | 97 | 1019.0 |
| 20260902212623 | 15 | 196 | 0.0 | 0.0 | 0.00 | 0.00 | 0.00 | 97 | 1019.1 |
| 20260902212357 | 15 | 196 | 0.0 | 0.0 | 0.00 | 0.00 | 0.00 | 97 | 1018.9 |
| 20260902211816 | 15 | 196 | 0.0 | 0.0 | 0.00 | 0.00 | 0.00 | 97 | 1019.0 |
| 20260902211717 | 15 | 196 | 0.0 | 0.0 | 0.00 | 0.00 | 0.00 | 97 | 1019.0 |
| 20260902211605 | 15 | 196 | 0.0 | 0.0 | 0.00 | 0.00 | 0.00 | 97 | 1019.0 |
| 20260902211505 | 15 | 196 | 0.0 | 0.0 | 0.00 | 0.00 | 0.00 | 97 | 1019.0 |
| 20260902211405 | 15 | 196 | 0.0 | 0.0 | 0.00 | 0.00 | 0.00 | 97 | 1019.1 |
| 20260902211305 | 15 | 196 | 0.0 | 0.0 | 0.00 | 0.00 | 0.00 | 96 | 1019.1 |
| 20260902211226 | 15 | 196 | 0.0 | 0.0 | 0.00 | 0.00 | 0.00 | 96 | 1018.9 |
| 20260902211206 | 15 | 196 | 0.0 | 0.0 | 0.00 | 0.00 | 0.00 | 96 | 1019.0 |
| 20260902211105 | 15 | 196 | 0.0 | 0.0 | 0.00 | 0.00 | 0.00 | 96 | 1019.0 |
| 20260902211007 | 15 | 196 | 0.0 | 0.0 | 0.00 | 0.00 | 0.00 | 96 | 1019.1 |
| 20260902210904 | 15 | 196 | 0.0 | 0.0 | 0.00 | 0.00 | 0.00 | 96 | 1019.1 |
| 20260902210805 | 15 | 196 | 0.0 | 0.0 | 0.00 | 0.00 | 0.00 | 96 | 1018.9 |
| 20260902210734 | 15 | 196 | 0.0 | 0.0 | 0.00 | 0.00 | 0.00 | 96 | 1018.9 |
| 20260902210728 | 15 | 196 | 0.0 | 0.0 | 0.00 | 0.00 | 0.00 | 96 | 1019.0 |
| 20260902210713 | 15 | 196 | 0.0 | 0.0 | 0.00 | 0.00 | 0.00 | 96 | 1019.0 |
| 20260902210354 | 15 | 196 | 0.0 | 0.0 | 0.00 | 0.00 | 0.00 | 96 | 1019.2 |
| 20260902210225 | 15 | 196 | 0.0 | 0.0 | 0.00 | 0.00 | 0.00 | 96 | 1019.1 |
| 20260902210154 | 15 | 196 | 0.0 | 0.0 | 0.00 | 0.00 | 0.00 | 96 | 1019.1 |
| 20260902210053 | 15 | 196 | 0.0 | 0.0 | 0.00 | 0.00 | 0.00 | 96 | 1019.1 |
| 20260902205953 | 15 | 196 | 0.0 | 0.0 | 0.00 | 0.00 | 0.00 | 96 | 1018.9 |
| 20260902205908 | 15 | 196 | 0.0 | 0.0 | 0.00 | 0.00 | 0.00 | 96 | 1019.1 |
| 20260902205903 | 15 | 196 | 0.0 | 0.0 | 0.00 | 0.00 | 0.00 | 95 | 1018.9 |
| 20260902205858 | 15 | 196 | 0.0 | 0.0 | 0.00 | 0.00 | 0.00 | 96 | 1019.0 |
| 20260902205826 | 15 | 196 | 0.0 | 0.0 | 0.00 | 0.00 | 0.00 | 96 | 1019.0 |
| 20260902205818 | 15 | 196 | 0.0 | 0.0 | 0.00 | 0.00 | 0.00 | 96 | 1018.8 |
| 20260902205802 | 15 | 196 | 0.0 | 0.0 | 0.00 | 0.00 | 0.00 | 96 | 1019.1 |
| 20260902205746 | 15 | 196 | 0.0 | 0.0 | 0.00 | 0.00 | 0.00 | 96 | 1018.8 |
| 20260902205731 | 15 | 196 | 0.0 | 0.0 | 0.00 | 0.00 | 0.00 | 96 | 1018.9 |
| 20260902205244 | 15 | 196 | 0.0 | 0.0 | 0.00 | 0.00 | 0.00 | 96 | 1019.0 |
| 20260902205229 | 15 | 196 | 0.0 | 0.0 | 0.00 | 0.00 | 0.00 | 96 | 1019.1 |
| 20260902205213 | 15 | 196 | 0.0 | 0.0 | 0.00 | 0.00 | 0.00 | 96 | 1018.9 |
| 20260902205157 | 15 | 196 | 0.0 | 0.0 | 0.00 | 0.00 | 0.00 | 95 | 1019.1 |
| 20260902204654 | 15 | 196 | 0.0 | 0.0 | 0.00 | 0.00 | 0.00 | 95 | 1019.0 |
| 20260902204554 | 15 | 196 | 0.0 | 0.0 | 0.00 | 0.00 | 0.00 | 95 | 1019.0 |
| 20260902204453 | 15 | 196 | 0.0 | 0.0 | 0.00 | 0.00 | 0.00 | 95 | 1019.0 |
| 20260902204353 | 15 | 196 | 0.0 | 0.0 | 0.00 | 0.00 | 0.00 | 95 | 1019.0 |
| 20260902204238 | 15 | 196 | 0.0 | 0.0 | 0.00 | 0.00 | 0.00 | 95 | 1018.9 |
| 20260902204230 | 15 | 196 | 0.0 | 0.0 | 0.00 | 0.00 | 0.00 | 95 | 1019.1 |
| 20260902204214 | 15 | 196 | 0.0 | 0.0 | 0.00 | 0.00 | 0.00 | 95 | 1019.1 |
| 20260902203853 | 15 | 196 | 0.0 | 0.0 | 0.00 | 0.00 | 0.00 | 95 | 1018.9 |
| 20260902203736 | 15 | 196 | 0.0 | 0.0 | 0.00 | 0.00 | 0.00 | 93 | 1019.0 |
| 20260902203726 | 15 | 196 | 0.0 | 0.0 | 0.00 | 0.00 | 0.00 | 95 | 1018.9 |
| 20260902203718 | 15 | 196 | 0.0 | 0.0 | 0.00 | 0.00 | 0.00 | 95 | 1018.9 |
| 20260902203702 | 15 | 196 | 0.0 | 0.0 | 0.00 | 0.00 | 0.00 | 95 | 1018.9 |
| 20260902203647 | 15 | 196 | 0.0 | 0.0 | 0.00 | 0.00 | 0.00 | 95 | 1019.0 |
| 20260902203357 | 15 | 196 | 0.0 | 0.0 | 0.00 | 0.00 | 0.00 | 95 | 1019.0 |
| 20260902203349 | 15 | 196 | 0.0 | 0.0 | 0.00 | 0.00 | 0.00 | 94 | 1019.2 |
| 20260902203334 | 15 | 196 | 0.0 | 0.0 | 0.00 | 0.00 | 0.00 | 94 | 1019.0 |
| 20260902203318 | 15 | 196 | 0.0 | 0.0 | 0.00 | 0.00 | 0.00 | 94 | 1019.1 |
| 20260902203302 | 15 | 196 | 0.0 | 0.0 | 0.00 | 0.00 | 0.00 | 94 | 1019.0 |
| 20260902203247 | 15 | 196 | 0.0 | 0.0 | 0.00 | 0.00 | 0.00 | 94 | 1019.0 |
| 20260902202529 | 15 | 196 | 0.0 | 0.0 | 0.00 | 0.00 | 0.00 | 93 | 1019.0 |
| 20260902202515 | 16 | 196 | 0.0 | 0.0 | 0.00 | 0.00 | 0.00 | 93 | 1019.0 |
| 20260902202214 | 16 | 196 | 0.0 | 0.0 | 0.00 | 0.00 | 0.00 | 93 | 1019.1 |
| 20260902202152 | 16 | 196 | 0.0 | 0.0 | 0.00 | 0.00 | 0.00 | 93 | 1018.9 |
| 20260902202054 | 16 | 196 | 0.0 | 0.0 | 0.00 | 0.00 | 0.00 | 93 | 1019.1 |
| 20260902201953 | 16 | 196 | 0.0 | 0.0 | 0.00 | 0.00 | 0.00 | 93 | 1019.1 |
| 20260902201853 | 16 | 196 | 0.0 | 0.0 | 0.00 | 0.00 | 0.00 | 93 | 1018.9 |
| 20260902201753 | 16 | 196 | 0.0 | 0.0 | 0.00 | 0.00 | 0.00 | 93 | 1019.0 |
| 20260902201714 | 16 | 196 | 0.0 | 0.0 | 0.00 | 0.00 | 0.00 | 93 | 1019.0 |
| 20260902201654 | 16 | 196 | 0.0 | 0.0 | 0.00 | 0.00 | 0.00 | 93 | 1019.1 |
| 20260902201553 | 16 | 196 | 0.0 | 0.0 | 0.00 | 0.00 | 0.00 | 93 | 1019.0 |
| 20260902201453 | 16 | 196 | 0.0 | 0.0 | 0.00 | 0.00 | 0.00 | 93 | 1019.1 |
| 20260902201352 | 16 | 196 | 0.0 | 0.0 | 0.00 | 0.00 | 0.00 | 93 | 1019.2 |
| 20260902201226 | 16 | 196 | 0.0 | 0.0 | 0.00 | 0.00 | 0.00 | 93 | 1019.1 |
| 20260902201153 | 16 | 196 | 0.0 | 0.0 | 0.00 | 0.00 | 0.00 | 93 | 1018.9 |
| 20260902201053 | 16 | 196 | 0.0 | 0.0 | 0.00 | 0.00 | 0.00 | 93 | 1019.1 |
| 20260902200955 | 16 | 196 | 0.0 | 0.0 | 0.00 | 0.00 | 0.00 | 93 | 1018.9 |
| 20260902200854 | 16 | 196 | 0.0 | 0.0 | 0.00 | 0.00 | 0.00 | 93 | 1018.9 |
| 20260902200744 | 16 | 196 | 0.0 | 0.0 | 0.00 | 0.00 | 0.00 | 92 | 1019.1 |
| 20260902200734 | 16 | 196 | 0.0 | 0.0 | 0.00 | 0.00 | 0.00 | 93 | 1019.0 |
| 20260902200726 | 16 | 196 | 0.0 | 0.0 | 0.00 | 0.00 | 0.00 | 93 | 1018.9 |
| 20260902200711 | 16 | 196 | 0.0 | 0.0 | 0.00 | 0.00 | 0.00 | 93 | 1019.0 |
| 20260902200655 | 16 | 196 | 0.0 | 0.0 | 0.00 | 0.00 | 0.00 | 93 | 1018.9 |
| 20260902200641 | 16 | 196 | 0.0 | 0.0 | 0.00 | 0.00 | 0.00 | 93 | 1019.0 |
| 20260902200625 | 16 | 196 | 0.0 | 0.0 | 0.00 | 0.00 | 0.00 | 93 | 1019.1 |
| 20260902200054 | 16 | 196 | 0.0 | 0.0 | 0.00 | 0.00 | 0.00 | 92 | 1018.9 |
| 20260902195953 | 16 | 196 | 0.0 | 0.0 | 0.00 | 0.00 | 0.00 | 92 | 1019.1 |
| 20260902195853 | 16 | 196 | 0.0 | 0.0 | 0.00 | 0.00 | 0.00 | 92 | 1019.1 |
| 20260902195754 | 16 | 196 | 0.0 | 0.0 | 0.00 | 0.00 | 0.00 | 92 | 1018.9 |
| 20260902195734 | 16 | 198 | 0.0 | 0.0 | 0.00 | 0.00 | 0.00 | 90 | 1019.1 |
| 20260902195724 | 16 | 196 | 0.0 | 0.0 | 0.00 | 0.00 | 0.00 | 92 | 1018.9 |
| 20260902195716 | 16 | 196 | 0.0 | 0.0 | 0.00 | 0.00 | 0.00 | 92 | 1018.9 |
| 20260902195700 | 16 | 196 | 0.0 | 0.0 | 0.00 | 0.00 | 0.00 | 92 | 1019.0 |
| 20260902195645 | 16 | 196 | 0.0 | 0.0 | 0.00 | 0.00 | 0.00 | 91 | 1019.1 |
| 20260902195417 | 16 | 196 | 0.0 | 0.0 | 0.00 | 0.00 | 0.00 | 91 | 1019.1 |
| 20260902195348 | 16 | 196 | 0.0 | 0.0 | 0.00 | 0.00 | 0.00 | 91 | 1019.0 |
| 20260902195339 | 16 | 196 | 0.0 | 0.0 | 0.00 | 0.00 | 0.00 | 91 | 1018.9 |
| 20260902195319 | 16 | 196 | 0.0 | 0.0 | 0.00 | 0.00 | 0.00 | 91 | 1019.0 |
| 20260902195306 | 16 | 196 | 0.0 | 0.0 | 0.00 | 0.00 | 0.00 | 90 | 1019.1 |
| 20260902195249 | 16 | 196 | 0.0 | 0.0 | 0.00 | 0.00 | 0.00 | 90 | 1019.1 |
| 20260902195219 | 16 | 196 | 0.0 | 0.0 | 0.00 | 0.00 | 0.00 | 90 | 1018.9 |
| 20260902194948 | 16 | 196 | 0.0 | 0.0 | 0.00 | 0.00 | 0.00 | 90 | 1019.0 |
| 20260902194232 | 16 | 196 | 0.0 | 0.0 | 0.00 | 0.00 | 0.00 | 90 | 1019.0 |
| 20260902194222 | 16 | 196 | 0.0 | 0.0 | 0.00 | 0.00 | 0.00 | 90 | 1019.0 |
| 20260902194206 | 16 | 196 | 0.0 | 0.0 | 0.00 | 0.00 | 0.00 | 90 | 1019.0 |
| 20260902194150 | 16 | 196 | 0.0 | 0.0 | 0.00 | 0.00 | 0.00 | 90 | 1019.1 |
| 20260902194134 | 16 | 196 | 0.0 | 0.0 | 0.00 | 0.00 | 0.00 | 90 | 1018.9 |
| 20260902193905 | 16 | 196 | 0.0 | 0.0 | 0.00 | 0.00 | 0.00 | 90 | 1019.1 |
| 20260902193630 | 16 | 196 | 0.0 | 0.0 | 0.00 | 0.00 | 0.00 | 90 | 1019.2 |
| 20260902193614 | 16 | 196 | 0.0 | 0.0 | 0.00 | 0.00 | 0.00 | 90 | 1019.2 |
| 20260902193349 | 16 | 196 | 0.0 | 0.0 | 0.00 | 0.00 | 0.00 | 90 | 1019.0 |
| 20260902193325 | 16 | 196 | 0.0 | 0.0 | 0.00 | 0.00 | 0.00 | 90 | 1019.0 |
| 20260902193309 | 16 | 196 | 0.0 | 0.0 | 0.00 | 0.00 | 0.00 | 90 | 1018.9 |
| 20260902193253 | 16 | 195 | 0.0 | 0.0 | 0.00 | 0.00 | 0.00 | 90 | 1019.2 |
| 20260902193237 | 16 | 201 | 0.0 | 0.0 | 0.00 | 0.00 | 0.00 | 90 | 1019.0 |
| 20260902193223 | 16 | 198 | 0.0 | 0.0 | 0.00 | 0.00 | 0.00 | 90 | 1019.2 |
| 20260902193203 | 16 | 198 | 0.0 | 0.0 | 0.00 | 0.00 | 0.00 | 90 | 1019.1 |
| 20260902192924 | 16 | 201 | 0.0 | 0.0 | 0.00 | 0.00 | 0.00 | 90 | 1019.1 |
| 20260902192908 | 16 | 201 | 0.0 | 0.0 | 0.00 | 0.00 | 0.00 | 90 | 1019.3 |
| 20260902192852 | 16 | 200 | 0.0 | 0.0 | 0.00 | 0.00 | 0.00 | 90 | 1019.3 |
| 20260902192836 | 16 | 200 | 0.0 | 0.0 | 0.00 | 0.00 | 0.00 | 89 | 1019.0 |
| 20260902192609 | 16 | 198 | 0.0 | 0.0 | 0.00 | 0.00 | 0.00 | 89 | 1019.0 |
| 20260902192552 | 16 | 196 | 0.0 | 0.0 | 0.00 | 0.00 | 0.00 | 90 | 1019.1 |
| 20260902192537 | 16 | 196 | 0.0 | 0.0 | 0.00 | 0.00 | 0.00 | 89 | 1019.1 |
| 20260902192521 | 16 | 196 | 0.0 | 0.0 | 0.00 | 0.00 | 0.00 | 89 | 1019.1 |
| 20260902192237 | 17 | 197 | 0.0 | 0.0 | 0.00 | 0.00 | 0.00 | 89 | 1019.1 |
| 20260902192221 | 17 | 197 | 0.0 | 0.0 | 0.00 | 0.00 | 0.00 | 89 | 1019.1 |
| 20260902191945 | 17 | 196 | 0.0 | 0.0 | 0.00 | 0.00 | 0.00 | 88 | 1019.1 |
| 20260902191238 | 17 | 196 | 0.0 | 0.0 | 0.00 | 0.00 | 0.00 | 88 | 1019.1 |
| 20260902190917 | 17 | 194 | 0.0 | 0.0 | 0.00 | 0.00 | 0.00 | 88 | 1019.0 |
| 20260902190851 | 17 | 194 | 0.0 | 0.0 | 0.00 | 0.00 | 0.00 | 88 | 1018.9 |
| 20260902190827 | 17 | 194 | 0.0 | 0.0 | 0.00 | 0.00 | 0.00 | 87 | 1019.2 |
| 20260902190811 | 17 | 194 | 0.0 | 0.0 | 0.00 | 0.00 | 0.00 | 87 | 1019.1 |
| 20260902190535 | 17 | 190 | 0.0 | 0.0 | 0.00 | 0.00 | 0.00 | 87 | 1019.2 |
| 20260902190520 | 17 | 191 | 0.0 | 0.0 | 0.00 | 0.00 | 0.00 | 87 | 1019.2 |
| 20260902190458 | 17 | 193 | 0.0 | 0.0 | 0.00 | 0.00 | 0.00 | 88 | 1019.1 |
| 20260902185916 | 17 | 195 | 0.0 | 0.0 | 0.00 | 0.00 | 0.00 | 88 | 1019.2 |
| 20260902185817 | 17 | 195 | 0.0 | 0.0 | 0.00 | 0.00 | 0.00 | 88 | 1019.1 |
| 20260902185717 | 17 | 194 | 0.0 | 0.0 | 0.00 | 0.00 | 0.00 | 88 | 1019.1 |
| 20260902185618 | 16 | 194 | 0.0 | 0.0 | 0.00 | 0.00 | 0.00 | 88 | 1019.0 |
| 20260902185518 | 17 | 193 | 0.0 | 0.0 | 0.00 | 0.00 | 0.00 | 88 | 1019.1 |
| 20260902185417 | 17 | 191 | 0.0 | 0.0 | 0.00 | 0.00 | 0.00 | 89 | 1018.9 |
| 20260902185321 | 17 | 191 | 0.0 | 0.0 | 0.00 | 0.00 | 0.00 | 89 | 1019.0 |
| 20260902185222 | 17 | 184 | 0.0 | 0.0 | 0.00 | 0.00 | 0.00 | 89 | 1019.0 |
| 20260902185153 | 16 | 191 | 0.0 | 0.0 | 0.00 | 0.00 | 0.00 | 89 | 1019.0 |
| 20260902185137 | 16 | 185 | 0.0 | 0.0 | 0.00 | 0.00 | 0.00 | 89 | 1019.0 |
| 20260902184817 | 16 | 191 | 0.0 | 0.0 | 0.00 | 0.00 | 0.00 | 89 | 1019.1 |
| 20260902184719 | 16 | 185 | 0.0 | 0.0 | 0.00 | 0.00 | 0.00 | 89 | 1018.9 |
| 20260902184618 | 16 | 185 | 0.0 | 0.0 | 0.00 | 0.00 | 0.00 | 89 | 1019.0 |
| 20260902184518 | 16 | 185 | 0.0 | 0.0 | 0.00 | 0.00 | 0.00 | 89 | 1019.1 |
| 20260902184418 | 16 | 195 | 0.0 | 0.0 | 0.00 | 0.00 | 0.00 | 89 | 1019.0 |
| 20260902184317 | 17 | 195 | 0.0 | 0.0 | 0.00 | 0.00 | 0.00 | 89 | 1018.7 |
| 20260902184217 | 17 | 194 | 0.0 | 0.0 | 0.00 | 0.00 | 0.00 | 89 | 1019.1 |
| 20260902184118 | 17 | 195 | 0.0 | 0.0 | 0.00 | 0.00 | 0.00 | 89 | 1018.8 |
| 20260902184024 | 17 | 195 | 0.0 | 0.0 | 0.00 | 0.00 | 0.00 | 87 | 1019.0 |
| 20260902184019 | 17 | 195 | 0.0 | 0.0 | 0.00 | 0.00 | 0.00 | 89 | 1019.1 |
| 20260902184003 | 17 | 195 | 0.0 | 0.0 | 0.00 | 0.00 | 0.00 | 88 | 1019.0 |
| 20260902183947 | 17 | 195 | 0.0 | 0.0 | 0.00 | 0.00 | 0.00 | 88 | 1018.9 |
| 20260902183928 | 17 | 195 | 0.0 | 0.0 | 0.00 | 0.00 | 0.00 | 87 | 1019.0 |
| 20260902183617 | 17 | 195 | 0.0 | 0.0 | 0.00 | 0.00 | 0.00 | 87 | 1018.9 |
| 20260902183517 | 17 | 195 | 0.0 | 0.0 | 0.00 | 0.00 | 0.00 | 87 | 1019.1 |
| 20260902183459 | 17 | 195 | 0.0 | 0.0 | 0.00 | 0.00 | 0.00 | 86 | 1019.0 |
| 20260902183444 | 17 | 195 | 0.0 | 0.0 | 0.00 | 0.00 | 0.00 | 86 | 1018.8 |
| 20260902183217 | 17 | 195 | 0.0 | 0.0 | 0.00 | 0.00 | 0.00 | 86 | 1019.0 |
| 20260902183117 | 17 | 195 | 0.0 | 0.0 | 0.00 | 0.00 | 0.00 | 86 | 1019.0 |
| 20260902183043 | 17 | 195 | 0.0 | 0.0 | 0.00 | 0.00 | 0.00 | 86 | 1018.8 |
| 20260902183027 | 17 | 194 | 0.0 | 0.0 | 0.00 | 0.00 | 0.00 | 86 | 1019.0 |
| 20260902183012 | 17 | 194 | 0.0 | 0.0 | 0.00 | 0.00 | 0.00 | 86 | 1018.8 |
| 20260902182743 | 17 | 194 | 0.0 | 0.0 | 0.00 | 0.00 | 0.00 | 86 | 1018.9 |
| 20260902182727 | 17 | 194 | 0.0 | 0.0 | 0.00 | 0.00 | 0.00 | 86 | 1018.9 |
| 20260902182711 | 17 | 194 | 0.0 | 0.0 | 0.00 | 0.00 | 0.00 | 86 | 1019.0 |
| 20260902182436 | 17 | 194 | 0.0 | 0.0 | 0.00 | 0.00 | 0.00 | 86 | 1019.0 |
| 20260902182413 | 17 | 194 | 0.0 | 0.0 | 0.00 | 0.00 | 0.00 | 86 | 1019.0 |
| 20260902182357 | 17 | 194 | 0.0 | 0.0 | 0.00 | 0.00 | 0.00 | 86 | 1018.5 |
| 20260902181817 | 17 | 194 | 0.0 | 0.0 | 0.00 | 0.00 | 0.00 | 86 | 1018.9 |
| 20260902181718 | 17 | 194 | 0.0 | 0.0 | 0.00 | 0.00 | 0.00 | 85 | 1018.9 |
| 20260902181618 | 17 | 194 | 0.0 | 0.0 | 0.00 | 0.00 | 0.00 | 85 | 1019.1 |
| 20260902181517 | 17 | 194 | 0.0 | 0.0 | 0.00 | 0.00 | 0.00 | 85 | 1019.1 |
| 20260902181417 | 18 | 194 | 0.0 | 0.0 | 0.00 | 0.00 | 0.00 | 85 | 1019.0 |
| 20260902181317 | 18 | 194 | 0.0 | 0.0 | 0.00 | 0.00 | 0.00 | 85 | 1018.9 |
| 20260902181218 | 18 | 194 | 0.0 | 0.0 | 0.00 | 0.00 | 0.00 | 85 | 1019.1 |
| 20260902181118 | 18 | 194 | 0.0 | 0.0 | 0.00 | 0.00 | 0.00 | 85 | 1018.9 |
| 20260902181055 | 19 | 194 | 0.0 | 0.0 | 0.00 | 0.00 | 0.00 | 79 | 1018.7 |
| 20260902181047 | 18 | 194 | 0.0 | 0.0 | 0.00 | 0.00 | 0.00 | 84 | 1019.1 |
| 20260902181032 | 18 | 194 | 0.0 | 0.0 | 0.00 | 0.00 | 0.00 | 84 | 1018.9 |
| 20260902181016 | 18 | 194 | 0.0 | 0.0 | 0.00 | 0.00 | 0.00 | 84 | 1019.2 |
| 20260902180744 | 18 | 194 | 0.0 | 0.0 | 0.00 | 0.00 | 0.00 | 84 | 1018.8 |
| 20260902180728 | 18 | 194 | 0.0 | 0.0 | 0.00 | 0.00 | 0.00 | 84 | 1019.1 |
| 20260902180713 | 18 | 195 | 0.0 | 0.0 | 0.00 | 0.00 | 0.00 | 83 | 1018.9 |
| 20260902180657 | 18 | 194 | 0.0 | 0.0 | 0.00 | 0.00 | 0.00 | 83 | 1018.9 |
| 20260902180641 | 18 | 194 | 0.0 | 0.0 | 0.00 | 0.00 | 0.00 | 83 | 1018.9 |
| 20260902180415 | 18 | 194 | 0.0 | 0.0 | 0.00 | 0.00 | 0.00 | 82 | 1018.9 |
| 20260902180359 | 18 | 194 | 0.0 | 0.0 | 0.00 | 0.00 | 0.00 | 82 | 1018.5 |
| 20260902180342 | 18 | 194 | 0.0 | 0.0 | 0.00 | 0.00 | 0.00 | 81 | 1019.0 |
| 20260902180326 | 18 | 195 | 0.0 | 0.0 | 0.00 | 0.00 | 0.00 | 80 | 1018.8 |
| 20260902180311 | 18 | 195 | 0.0 | 0.0 | 0.00 | 0.00 | 0.00 | 80 | 1018.9 |
| 20260902180252 | 19 | 194 | 0.0 | 0.0 | 0.00 | 0.00 | 0.00 | 79 | 1018.7 |
| 20260902175600 | 19 | 107 | 0.0 | 0.0 | 0.00 | 0.00 | 0.00 | 77 | 1018.9 |
| 20260902175551 | 19 | 195 | 0.0 | 0.0 | 0.00 | 0.00 | 0.00 | 78 | 1018.8 |
| 20260902175535 | 19 | 107 | 0.0 | 0.0 | 0.00 | 0.00 | 0.00 | 78 | 1019.0 |
| 20260902175519 | 19 | 107 | 0.0 | 0.0 | 0.00 | 0.00 | 0.00 | 77 | 1018.9 |
| 20260902175503 | 19 | 107 | 0.0 | 0.0 | 0.00 | 0.00 | 0.00 | 77 | 1018.9 |
| 20260902175239 | 19 | 107 | 0.0 | 0.0 | 0.00 | 0.00 | 0.00 | 77 | 1018.7 |
| 20260902175223 | 19 | 107 | 0.0 | 0.0 | 0.00 | 0.00 | 0.00 | 77 | 1018.8 |
| 20260902175001 | 19 | 107 | 0.0 | 0.0 | 0.00 | 0.00 | 0.00 | 77 | 1018.5 |
| 20260902174945 | 20 | 107 | 0.0 | 0.0 | 0.00 | 0.00 | 0.00 | 76 | 1018.8 |
| 20260902174926 | 20 | 195 | 0.0 | 0.0 | 0.00 | 0.00 | 0.00 | 76 | 1018.8 |
| 20260902174617 | 20 | 195 | 0.0 | 0.0 | 0.00 | 0.00 | 0.00 | 76 | 1018.9 |
| 20260902174516 | 20 | 195 | 0.0 | 0.0 | 0.00 | 0.00 | 0.00 | 76 | 1018.8 |
| 20260902174416 | 20 | 195 | 0.0 | 0.0 | 0.00 | 0.00 | 0.00 | 76 | 1018.9 |
| 20260902174317 | 20 | 107 | 0.0 | 0.0 | 0.00 | 0.00 | 0.00 | 75 | 1018.9 |
| 20260902174217 | 20 | 195 | 0.0 | 0.0 | 0.00 | 0.00 | 0.00 | 75 | 1018.9 |
| 20260902174116 | 20 | 195 | 0.0 | 0.0 | 0.00 | 0.00 | 0.00 | 75 | 1018.9 |
| 20260902174016 | 20 | 195 | 0.0 | 0.0 | 0.00 | 0.00 | 0.00 | 75 | 1018.9 |
| 20260902173916 | 20 | 195 | 0.0 | 0.0 | 0.00 | 0.00 | 0.00 | 75 | 1018.8 |
| 20260902173817 | 20 | 195 | 0.0 | 0.0 | 0.00 | 0.00 | 0.00 | 75 | 1018.9 |
| 20260902173716 | 20 | 195 | 0.0 | 0.0 | 0.00 | 0.00 | 0.00 | 74 | 1018.8 |
| 20260902173616 | 20 | 195 | 0.0 | 0.0 | 0.00 | 0.00 | 0.00 | 74 | 1018.8 |
| 20260902173516 | 20 | 195 | 0.0 | 0.0 | 0.00 | 0.00 | 0.00 | 74 | 1018.7 |
| 20260902173417 | 20 | 195 | 0.0 | 0.0 | 0.00 | 0.00 | 0.00 | 74 | 1018.5 |
| 20260902173316 | 20 | 195 | 0.0 | 0.0 | 0.00 | 0.00 | 0.00 | 74 | 1018.7 |
| 20260902173251 | 20 | 195 | 0.0 | 0.0 | 0.00 | 0.00 | 0.00 | 74 | 1018.8 |
| 20260902173236 | 20 | 187 | 0.0 | 0.0 | 0.00 | 0.00 | 0.00 | 73 | 1018.8 |
| 20260902172916 | 20 | 187 | 0.0 | 0.0 | 0.00 | 0.00 | 0.00 | 73 | 1018.9 |
| 20260902172816 | 20 | 187 | 0.0 | 0.0 | 0.00 | 0.00 | 0.00 | 73 | 1018.8 |
| 20260902172716 | 20 | 195 | 0.0 | 0.0 | 0.00 | 0.00 | 0.00 | 73 | 1018.7 |
| 20260902172617 | 20 | 187 | 0.0 | 0.0 | 0.00 | 0.00 | 0.00 | 73 | 1018.8 |
| 20260902172516 | 20 | 195 | 0.0 | 0.0 | 0.00 | 0.00 | 0.00 | 73 | 1018.5 |
| 20260902172418 | 20 | 187 | 0.0 | 0.0 | 0.00 | 0.00 | 0.00 | 73 | 1018.5 |
| 20260902172317 | 20 | 195 | 0.0 | 0.0 | 0.00 | 0.00 | 0.00 | 72 | 1018.5 |
| 20260902172216 | 20 | 187 | 0.0 | 0.0 | 0.00 | 0.00 | 0.00 | 73 | 1018.5 |
| 20260902172117 | 20 | 195 | 0.0 | 0.0 | 0.00 | 0.00 | 0.00 | 73 | 1018.7 |
| 20260902172018 | 20 | 187 | 0.0 | 0.0 | 0.00 | 0.00 | 0.00 | 73 | 1018.8 |
| 20260902172002 | 20 | 191 | 0.0 | 0.0 | 0.00 | 0.00 | 0.00 | 73 | 1018.9 |
| 20260902171945 | 20 | 187 | 0.0 | 0.0 | 0.00 | 0.00 | 0.00 | 73 | 1018.7 |
| 20260902171716 | 20 | 187 | 0.0 | 0.0 | 0.00 | 0.00 | 0.00 | 72 | 1018.5 |
| 20260902171616 | 20 | 193 | 0.0 | 0.0 | 0.00 | 0.00 | 0.00 | 72 | 1018.7 |
| 20260902171516 | 20 | 191 | 0.0 | 0.0 | 0.00 | 0.00 | 0.00 | 72 | 1018.8 |
| 20260902171416 | 20 | 191 | 0.0 | 0.0 | 0.00 | 0.00 | 0.00 | 72 | 1018.4 |
| 20260902171317 | 20 | 191 | 0.0 | 0.0 | 0.00 | 0.00 | 0.00 | 72 | 1018.7 |
| 20260902171216 | 20 | 191 | 0.0 | 0.0 | 0.00 | 0.00 | 0.00 | 72 | 1018.8 |
| 20260902171118 | 20 | 193 | 0.0 | 0.0 | 0.00 | 0.00 | 0.00 | 72 | 1018.7 |
| 20260902171016 | 21 | 191 | 0.0 | 0.0 | 0.00 | 0.00 | 0.00 | 71 | 1018.5 |
| 20260902170916 | 21 | 187 | 0.0 | 0.0 | 0.00 | 0.00 | 0.00 | 72 | 1018.7 |
| 20260902170816 | 21 | 191 | 0.0 | 0.0 | 0.00 | 0.00 | 0.00 | 72 | 1018.8 |
| 20260902170716 | 21 | 191 | 0.0 | 0.0 | 0.00 | 0.00 | 0.00 | 71 | 1018.5 |
| 20260902170616 | 21 | 191 | 0.0 | 0.0 | 0.00 | 0.00 | 0.00 | 71 | 1018.8 |
| 20260902170516 | 21 | 191 | 0.0 | 0.0 | 0.00 | 0.00 | 0.00 | 71 | 1018.7 |
| 20260902170416 | 21 | 191 | 0.0 | 0.0 | 0.00 | 0.00 | 0.00 | 71 | 1018.7 |
| 20260902170316 | 21 | 187 | 0.0 | 0.0 | 0.00 | 0.00 | 0.00 | 71 | 1018.8 |
| 20260902170216 | 21 | 187 | 0.0 | 0.0 | 0.00 | 0.00 | 0.00 | 70 | 1018.4 |
| 20260902170116 | 21 | 191 | 0.0 | 0.0 | 0.00 | 0.00 | 0.00 | 70 | 1018.8 |
| 20260902170016 | 21 | 187 | 0.0 | 0.0 | 0.00 | 0.00 | 0.00 | 70 | 1018.4 |
| 20260902165917 | 21 | 195 | 0.0 | 0.0 | 0.00 | 0.00 | 0.00 | 70 | 1018.7 |
| 20260902165901 | 21 | 195 | 0.0 | 0.0 | 0.00 | 0.00 | 0.00 | 70 | 1018.7 |
| 20260902165837 | 21 | 195 | 0.0 | 0.0 | 0.00 | 0.00 | 0.00 | 70 | 1018.7 |
| 20260902165516 | 21 | 198 | 0.0 | 0.0 | 0.00 | 0.00 | 0.00 | 71 | 1018.7 |
| 20260902165417 | 21 | 198 | 0.0 | 0.0 | 0.00 | 0.00 | 0.00 | 71 | 1018.7 |
| 20260902165316 | 21 | 198 | 0.0 | 0.0 | 0.00 | 0.00 | 0.00 | 70 | 1018.8 |
| 20260902165216 | 21 | 198 | 0.0 | 0.0 | 0.00 | 0.00 | 0.00 | 70 | 1018.4 |
| 20260902165116 | 21 | 198 | 0.0 | 0.0 | 0.00 | 0.00 | 0.00 | 70 | 1018.8 |
| 20260902165016 | 21 | 196 | 0.0 | 0.0 | 0.00 | 0.00 | 0.00 | 69 | 1018.5 |
| 20260902165000 | 21 | 195 | 0.0 | 0.0 | 0.00 | 0.00 | 0.00 | 69 | 1018.7 |
| 20260902164945 | 21 | 199 | 0.0 | 0.0 | 0.00 | 0.00 | 0.00 | 69 | 1018.5 |
| 20260902164716 | 21 | 199 | 0.0 | 0.0 | 0.00 | 0.00 | 0.00 | 69 | 1018.7 |
| 20260902164351 | 21 | 196 | 0.0 | 1.6 | 0.00 | 0.00 | 0.00 | 70 | 1018.4 |
| 20260902164327 | 21 | 196 | 0.0 | 1.6 | 0.00 | 0.00 | 0.00 | 70 | 1018.7 |
| 20260902164311 | 21 | 194 | 0.0 | 0.0 | 0.00 | 0.00 | 0.00 | 70 | 1018.4 |
| 20260902163951 | 21 | 194 | 0.0 | 0.0 | 0.00 | 0.00 | 0.00 | 69 | 1018.7 |
| 20260902163852 | 21 | 194 | 0.0 | 0.0 | 0.00 | 0.00 | 0.00 | 69 | 1018.7 |
| 20260902163830 | 21 | 192 | 0.0 | 0.0 | 0.00 | 0.00 | 0.00 | 69 | 1018.5 |
| 20260902163812 | 21 | 190 | 0.0 | 0.0 | 0.00 | 0.00 | 0.00 | 69 | 1018.5 |
| 20260902163756 | 21 | 189 | 0.0 | 0.0 | 0.00 | 0.00 | 0.00 | 69 | 1018.4 |
| 20260902163519 | 21 | 198 | 0.0 | 0.0 | 0.00 | 0.00 | 0.00 | 70 | 1018.7 |
| 20260902163252 | 21 | 196 | 0.0 | 0.0 | 0.00 | 0.00 | 0.00 | 70 | 1018.7 |
| 20260902163151 | 21 | 196 | 0.0 | 0.0 | 0.00 | 0.00 | 0.00 | 69 | 1018.8 |
| 20260902163139 | 21 | 198 | 0.0 | 1.6 | 0.00 | 0.00 | 0.00 | 70 | 1018.7 |
| 20260902163129 | 21 | 191 | 0.0 | 0.0 | 0.00 | 0.00 | 0.00 | 70 | 1018.8 |
| 20260902163113 | 21 | 198 | 0.0 | 0.0 | 0.00 | 0.00 | 0.00 | 69 | 1018.8 |
| 20260902162831 | 21 | 198 | 0.0 | 1.6 | 0.00 | 0.00 | 0.00 | 70 | 1018.5 |
| 20260902162813 | 21 | 198 | 0.0 | 1.6 | 0.00 | 0.00 | 0.00 | 70 | 1018.4 |
| 20260902162756 | 21 | 198 | 0.0 | 1.6 | 0.00 | 0.00 | 0.00 | 70 | 1018.5 |
| 20260902162740 | 21 | 198 | 0.0 | 1.6 | 0.00 | 0.00 | 0.00 | 70 | 1018.4 |
| 20260902162724 | 21 | 198 | 0.0 | 1.6 | 0.00 | 0.00 | 0.00 | 70 | 1018.8 |
| 20260902162152 | 21 | 199 | 0.0 | 1.6 | 0.00 | 0.00 | 0.00 | 69 | 1018.7 |
| 20260902162051 | 21 | 200 | 0.0 | 1.6 | 0.00 | 0.00 | 0.00 | 69 | 1018.4 |
| 20260902161951 | 21 | 200 | 0.0 | 1.6 | 0.00 | 0.00 | 0.00 | 69 | 1018.9 |
| 20260902161851 | 21 | 200 | 0.0 | 1.6 | 0.00 | 0.00 | 0.00 | 69 | 1018.5 |
| 20260902161751 | 21 | 193 | 0.0 | 0.0 | 0.00 | 0.00 | 0.00 | 69 | 1018.7 |
| 20260902161652 | 21 | 187 | 0.0 | 0.0 | 0.00 | 0.00 | 0.00 | 69 | 1018.7 |
| 20260902161552 | 21 | 192 | 0.0 | 0.0 | 0.00 | 0.00 | 0.00 | 69 | 1018.5 |
| 20260902161454 | 21 | 192 | 0.0 | 0.0 | 0.00 | 0.00 | 0.00 | 69 | 1018.7 |
| 20260902161438 | 21 | 191 | 0.0 | 0.0 | 0.00 | 0.00 | 0.00 | 69 | 1018.7 |
| 20260902161416 | 21 | 191 | 0.0 | 0.0 | 0.00 | 0.00 | 0.00 | 69 | 1018.7 |
| 20260902161052 | 21 | 191 | 0.0 | 0.0 | 0.00 | 0.00 | 0.00 | 68 | 1018.5 |
| 20260902160952 | 21 | 203 | 0.0 | 0.0 | 0.00 | 0.00 | 0.00 | 68 | 1018.5 |
| 20260902160855 | 22 | 196 | 0.0 | 1.6 | 0.00 | 0.00 | 0.00 | 67 | 1018.7 |
| 20260902160851 | 21 | 199 | 0.0 | 0.0 | 0.00 | 0.00 | 0.00 | 68 | 1018.4 |
| 20260902160829 | 21 | 195 | 0.0 | 0.0 | 0.00 | 0.00 | 0.00 | 68 | 1018.7 |
| 20260902160811 | 21 | 195 | 0.0 | 0.0 | 0.00 | 0.00 | 0.00 | 68 | 1018.3 |
| 20260902160755 | 22 | 187 | 0.0 | 0.0 | 0.00 | 0.00 | 0.00 | 68 | 1018.8 |
| 20260902160520 | 22 | 194 | 0.0 | 1.6 | 0.00 | 0.00 | 0.00 | 67 | 1018.5 |
| 20260902160502 | 22 | 196 | 0.0 | 1.6 | 0.00 | 0.00 | 0.00 | 67 | 1018.7 |
| 20260902160151 | 22 | 196 | 0.0 | 1.6 | 0.00 | 0.00 | 0.00 | 66 | 1018.7 |
| 20260902160051 | 22 | 196 | 0.0 | 1.6 | 0.00 | 0.00 | 0.00 | 67 | 1018.7 |
| 20260902155952 | 22 | 195 | 0.0 | 1.6 | 0.00 | 0.00 | 0.00 | 66 | 1018.8 |
| 20260902155851 | 22 | 192 | 0.0 | 1.6 | 0.00 | 0.00 | 0.00 | 66 | 1018.7 |
| 20260902155752 | 22 | 191 | 0.0 | 1.6 | 0.00 | 0.00 | 0.00 | 66 | 1018.8 |
| 20260902155652 | 22 | 198 | 0.0 | 1.6 | 0.00 | 0.00 | 0.00 | 66 | 1018.8 |
| 20260902155551 | 22 | 196 | 0.0 | 1.6 | 0.00 | 0.00 | 0.00 | 66 | 1018.7 |
| 20260902155451 | 22 | 191 | 0.0 | 1.6 | 0.00 | 0.00 | 0.00 | 66 | 1018.8 |
| 20260902155351 | 22 | 195 | 0.0 | 1.6 | 0.00 | 0.00 | 0.00 | 66 | 1018.7 |
| 20260902155252 | 22 | 196 | 0.0 | 1.6 | 0.00 | 0.00 | 0.00 | 66 | 1018.5 |
| 20260902155229 | 22 | 194 | 0.0 | 3.2 | 0.00 | 0.00 | 0.00 | 66 | 1018.5 |
| 20260902155214 | 22 | 192 | 0.0 | 3.2 | 0.00 | 0.00 | 0.00 | 66 | 1018.7 |
| 20260902155158 | 22 | 199 | 0.0 | 3.2 | 0.00 | 0.00 | 0.00 | 66 | 1018.9 |
| 20260902155142 | 22 | 198 | 0.0 | 3.2 | 0.00 | 0.00 | 0.00 | 66 | 1018.8 |
| 20260902154915 | 22 | 198 | 0.0 | 3.2 | 0.00 | 0.00 | 0.00 | 66 | 1018.8 |
| 20260902154628 | 22 | 190 | 0.0 | 3.2 | 0.00 | 0.00 | 0.00 | 66 | 1018.7 |
| 20260902154612 | 22 | 194 | 0.0 | 3.2 | 0.00 | 0.00 | 0.00 | 66 | 1018.7 |
| 20260902154252 | 22 | 187 | 0.0 | 3.2 | 0.00 | 0.00 | 0.00 | 65 | 1018.7 |
| 20260902154151 | 22 | 174 | 0.0 | 0.0 | 0.00 | 0.00 | 0.00 | 65 | 1018.8 |
| 20260902154119 | 22 | 196 | 0.0 | 1.6 | 0.00 | 0.00 | 0.00 | 65 | 1018.8 |
| 20260902154103 | 22 | 198 | 0.0 | 1.6 | 0.00 | 0.00 | 0.00 | 65 | 1018.7 |
| 20260902154047 | 22 | 184 | 0.0 | 1.6 | 0.00 | 0.00 | 0.00 | 65 | 1018.5 |
| 20260902154025 | 22 | 195 | 0.0 | 1.6 | 0.00 | 0.00 | 0.00 | 65 | 1018.5 |
| 20260902154007 | 22 | 198 | 0.0 | 1.6 | 0.00 | 0.00 | 0.00 | 65 | 1018.5 |
| 20260902153951 | 22 | 190 | 0.0 | 1.6 | 0.00 | 0.00 | 0.00 | 65 | 1018.7 |
| 20260902153715 | 22 | 185 | 0.0 | 1.6 | 0.00 | 0.00 | 0.00 | 65 | 1018.7 |
| 20260902153449 | 22 | 193 | 0.0 | 1.6 | 0.00 | 0.00 | 0.00 | 65 | 1018.5 |
| 20260902153433 | 22 | 187 | 0.0 | 1.6 | 0.00 | 0.00 | 0.00 | 65 | 1018.9 |
| 20260902152851 | 22 | 194 | 0.0 | 1.6 | 0.00 | 0.00 | 0.00 | 65 | 1018.9 |
| 20260902152751 | 22 | 187 | 0.0 | 1.6 | 0.00 | 0.00 | 0.00 | 65 | 1018.7 |
| 20260902152651 | 22 | 192 | 0.0 | 1.6 | 0.00 | 0.00 | 0.00 | 65 | 1018.5 |
| 20260902152552 | 22 | 199 | 0.0 | 1.6 | 0.00 | 0.00 | 0.00 | 64 | 1018.8 |
| 20260902152452 | 22 | 200 | 0.0 | 1.6 | 0.00 | 0.00 | 0.00 | 64 | 1018.7 |
| 20260902152351 | 22 | 195 | 0.0 | 1.6 | 0.00 | 0.00 | 0.00 | 64 | 1018.8 |
| 20260902152338 | 23 | 196 | 0.0 | 3.2 | 0.00 | 0.00 | 0.00 | 63 | 1019.1 |
| 20260902152320 | 22 | 192 | 0.0 | 1.6 | 0.00 | 0.00 | 0.00 | 64 | 1018.7 |
| 20260902152307 | 22 | 192 | 0.0 | 1.6 | 0.00 | 0.00 | 0.00 | 64 | 1019.1 |
| 20260902152247 | 22 | 183 | 0.0 | 0.0 | 0.00 | 0.00 | 0.00 | 63 | 1018.7 |
| 20260902152232 | 23 | 196 | 0.0 | 1.6 | 0.00 | 0.00 | 0.00 | 63 | 1018.7 |
| 20260902151947 | 23 | 200 | 0.0 | 1.6 | 0.00 | 0.00 | 0.00 | 63 | 1018.9 |
| 20260902151929 | 23 | 196 | 0.0 | 1.6 | 0.00 | 0.00 | 0.00 | 63 | 1018.9 |
| 20260902151654 | 23 | 198 | 0.0 | 1.6 | 0.00 | 0.00 | 0.00 | 63 | 1018.7 |
| 20260902151637 | 23 | 201 | 0.0 | 1.6 | 0.00 | 0.00 | 0.00 | 64 | 1018.8 |
| 20260902151409 | 23 | 206 | 0.0 | 3.2 | 0.00 | 0.00 | 0.00 | 63 | 1018.7 |
| 20260902151354 | 23 | 195 | 0.0 | 3.2 | 0.00 | 0.00 | 0.00 | 63 | 1018.8 |
| 20260902151117 | 22 | 197 | 0.0 | 3.2 | 0.00 | 0.00 | 0.00 | 64 | 1018.7 |
| 20260902150851 | 22 | 197 | 0.0 | 3.2 | 0.00 | 0.00 | 0.00 | 64 | 1018.8 |
| 20260902150829 | 22 | 197 | 0.0 | 3.2 | 0.00 | 0.00 | 0.00 | 64 | 1018.9 |
| 20260902150810 | 22 | 194 | 0.0 | 3.2 | 0.00 | 0.00 | 0.00 | 64 | 1018.8 |
| 20260902150754 | 22 | 191 | 0.0 | 3.2 | 0.00 | 0.00 | 0.00 | 64 | 1018.9 |
| 20260902150738 | 23 | 204 | 0.0 | 3.2 | 0.00 | 0.00 | 0.00 | 64 | 1019.0 |
| 20260902150500 | 23 | 196 | 0.0 | 3.2 | 0.00 | 0.00 | 0.00 | 63 | 1019.1 |
| 20260902150150 | 23 | 192 | 0.0 | 3.2 | 0.00 | 0.00 | 0.00 | 63 | 1019.0 |
| 20260902150049 | 23 | 211 | 1.6 | 3.2 | 0.00 | 0.00 | 0.00 | 63 | 1018.8 |
| 20260902145951 | 23 | 196 | 0.0 | 1.6 | 0.00 | 0.00 | 0.00 | 63 | 1019.1 |
| 20260902145850 | 23 | 188 | 0.0 | 1.6 | 0.00 | 0.00 | 0.00 | 64 | 1018.8 |
| 20260902145750 | 23 | 194 | 0.0 | 1.6 | 0.00 | 0.00 | 0.00 | 63 | 1019.0 |
| 20260902145650 | 23 | 190 | 0.0 | 1.6 | 0.00 | 0.00 | 0.00 | 64 | 1019.1 |
| 20260902145627 | 23 | 199 | 0.0 | 1.6 | 0.00 | 0.00 | 0.00 | 64 | 1019.0 |
| 20260902145611 | 23 | 200 | 0.0 | 1.6 | 0.00 | 0.00 | 0.00 | 64 | 1019.1 |
| 20260902145250 | 23 | 194 | 0.0 | 3.2 | 0.00 | 0.00 | 0.00 | 64 | 1018.9 |
| 20260902145150 | 23 | 196 | 0.0 | 3.2 | 0.00 | 0.00 | 0.00 | 64 | 1019.1 |
| 20260902145127 | 23 | 196 | 0.0 | 3.2 | 0.00 | 0.00 | 0.00 | 64 | 1018.9 |
| 20260902145112 | 23 | 134 | 0.0 | 3.2 | 0.00 | 0.00 | 0.00 | 63 | 1019.0 |
| 20260902144751 | 23 | 129 | 0.0 | 3.2 | 0.00 | 0.00 | 0.00 | 63 | 1018.9 |
| 20260902144704 | 23 | 175 | 1.6 | 3.2 | 0.00 | 0.00 | 0.00 | 63 | 1018.9 |
| 20260902144647 | 23 | 196 | 0.0 | 3.2 | 0.00 | 0.00 | 0.00 | 63 | 1018.9 |
| 20260902144631 | 23 | 206 | 0.0 | 3.2 | 0.00 | 0.00 | 0.00 | 63 | 1019.1 |
| 20260902144614 | 23 | 196 | 0.0 | 3.2 | 0.00 | 0.00 | 0.00 | 63 | 1018.9 |
| 20260902144526 | 23 | 186 | 0.0 | 3.2 | 0.00 | 0.00 | 0.00 | 63 | 1019.1 |
| 20260902144454 | 23 | 186 | 0.0 | 3.2 | 0.00 | 0.00 | 0.00 | 63 | 1019.1 |
| 20260902144431 | 23 | 183 | 0.0 | 3.2 | 0.00 | 0.00 | 0.00 | 64 | 1018.9 |
| 20260902143935 | 23 | 184 | 0.0 | 3.2 | 0.00 | 0.00 | 0.00 | 64 | 1019.1 |
| 20260902143913 | 23 | 196 | 0.0 | 3.2 | 0.00 | 0.00 | 0.00 | 64 | 1019.0 |
| 20260902143550 | 23 | 99 | 1.6 | 3.2 | 0.00 | 0.00 | 0.00 | 63 | 1018.9 |
| 20260902143451 | 23 | 132 | 0.0 | 3.2 | 0.00 | 0.00 | 0.00 | 63 | 1019.0 |
| 20260902143426 | 23 | 193 | 0.0 | 3.2 | 0.00 | 0.00 | 0.00 | 63 | 1018.9 |
| 20260902143403 | 23 | 194 | 0.0 | 3.2 | 0.00 | 0.00 | 0.00 | 63 | 1019.1 |
| 20260902143346 | 23 | 199 | 0.0 | 3.2 | 0.00 | 0.00 | 0.00 | 63 | 1019.1 |
| 20260902143331 | 23 | 186 | 0.0 | 3.2 | 0.00 | 0.00 | 0.00 | 63 | 1019.1 |
| 20260902142750 | 23 | 261 | 1.6 | 3.2 | 0.00 | 0.00 | 0.00 | 62 | 1019.0 |
| 20260902142727 | 23 | 210 | 0.0 | 3.2 | 0.00 | 0.00 | 0.00 | 62 | 1018.9 |
| 20260902142711 | 23 | 199 | 0.0 | 1.6 | 0.00 | 0.00 | 0.00 | 62 | 1018.9 |
| 20260902142352 | 23 | 200 | 0.0 | 1.6 | 0.00 | 0.00 | 0.00 | 62 | 1019.0 |
| 20260902142326 | 23 | 196 | 0.0 | 1.6 | 0.00 | 0.00 | 0.00 | 62 | 1019.1 |
| 20260902142310 | 23 | 200 | 0.0 | 1.6 | 0.00 | 0.00 | 0.00 | 62 | 1018.9 |
| 20260902141951 | 23 | 178 | 0.0 | 1.6 | 0.00 | 0.00 | 0.00 | 62 | 1019.0 |
| 20260902141850 | 23 | 191 | 0.0 | 1.6 | 0.00 | 0.00 | 0.00 | 61 | 1019.2 |
| 20260902141751 | 23 | 202 | 0.0 | 3.2 | 0.00 | 0.00 | 0.00 | 61 | 1019.2 |
| 20260902141651 | 23 | 205 | 0.0 | 3.2 | 0.00 | 0.00 | 0.00 | 60 | 1018.9 |
| 20260902141551 | 23 | 201 | 0.0 | 3.2 | 0.00 | 0.00 | 0.00 | 60 | 1019.0 |
| 20260902141451 | 23 | 200 | 0.0 | 3.2 | 0.00 | 0.00 | 0.00 | 61 | 1019.1 |
| 20260902141351 | 23 | 196 | 0.0 | 3.2 | 0.00 | 0.00 | 0.00 | 61 | 1019.1 |
| 20260902141250 | 23 | 201 | 0.0 | 3.2 | 0.00 | 0.00 | 0.00 | 61 | 1018.9 |
| 20260902141217 | 23 | 210 | 0.0 | 3.2 | 0.00 | 0.00 | 0.00 | 61 | 1019.1 |
| 20260902141201 | 23 | 201 | 0.0 | 3.2 | 0.00 | 0.00 | 0.00 | 60 | 1019.2 |
| 20260902141145 | 23 | 202 | 0.0 | 3.2 | 0.00 | 0.00 | 0.00 | 60 | 1019.0 |
| 20260902141129 | 23 | 202 | 0.0 | 3.2 | 0.00 | 0.00 | 0.00 | 60 | 1018.9 |
| 20260902141107 | 23 | 199 | 0.0 | 3.2 | 0.00 | 0.00 | 0.00 | 60 | 1019.2 |
| 20260902141049 | 23 | 200 | 0.0 | 3.2 | 0.00 | 0.00 | 0.00 | 60 | 1019.1 |
| 20260902141034 | 23 | 199 | 0.0 | 3.2 | 0.00 | 0.00 | 0.00 | 60 | 1019.1 |
| 20260902141020 | 23 | 76 | 1.6 | 3.2 | 0.00 | 0.00 | 0.00 | 61 | 1019.1 |
| 20260902141005 | 23 | 202 | 0.0 | 3.2 | 0.00 | 0.00 | 0.00 | 61 | 1019.0 |
| 20260902140943 | 23 | 209 | 0.0 | 3.2 | 0.00 | 0.00 | 0.00 | 61 | 1019.2 |
| 20260902140446 | 23 | 177 | 0.0 | 3.2 | 0.00 | 0.00 | 0.00 | 62 | 1019.1 |
| 20260902135956 | 23 | 196 | 0.0 | 3.2 | 0.00 | 0.00 | 0.00 | 61 | 1019.0 |
| 20260902135938 | 23 | 176 | 0.0 | 3.2 | 0.00 | 0.00 | 0.00 | 62 | 1019.3 |
| 20260902135922 | 23 | 97 | 1.6 | 3.2 | 0.00 | 0.00 | 0.00 | 63 | 1019.3 |
| 20260902135646 | 23 | 143 | 1.6 | 3.2 | 0.00 | 0.00 | 0.00 | 61 | 1019.1 |
| 20260902135623 | 24 | 208 | 1.6 | 3.2 | 0.00 | 0.00 | 0.00 | 61 | 1019.2 |
| 20260902135346 | 23 | 196 | 0.0 | 1.6 | 0.00 | 0.00 | 0.00 | 61 | 1019.2 |
| 20260902135108 | 23 | 149 | 0.0 | 3.2 | 0.00 | 0.00 | 0.00 | 62 | 1019.2 |
| 20260902135051 | 23 | 201 | 0.0 | 3.2 | 0.00 | 0.00 | 0.00 | 62 | 1018.9 |
| 20260902134822 | 23 | 192 | 0.0 | 3.2 | 0.00 | 0.00 | 0.00 | 62 | 1019.1 |
| 20260902134545 | 23 | 201 | 0.0 | 3.2 | 0.00 | 0.00 | 0.00 | 60 | 1019.2 |
| 20260902134247 | 23 | 178 | 0.0 | 3.2 | 0.00 | 0.00 | 0.00 | 62 | 1019.3 |
| 20260902134236 | 23 | 134 | 1.6 | 3.2 | 0.00 | 0.00 | 0.00 | 62 | 1019.3 |
| 20260902134127 | 23 | 219 | 0.0 | 3.2 | 0.00 | 0.00 | 0.00 | 63 | 1019.3 |
| 20260902134048 | 23 | 211 | 0.0 | 4.8 | 0.00 | 0.00 | 0.00 | 62 | 1019.3 |
| 20260902133926 | 23 | 38 | 3.2 | 4.8 | 0.00 | 0.00 | 0.00 | 62 | 1019.2 |
| 20260902133827 | 23 | 206 | 0.0 | 4.8 | 0.00 | 0.00 | 0.00 | 63 | 1019.3 |
| 20260902133746 | 23 | 206 | 0.0 | 4.8 | 0.00 | 0.00 | 0.00 | 63 | 1019.4 |
| 20260902133727 | 23 | 211 | 0.0 | 4.8 | 0.00 | 0.00 | 0.00 | 62 | 1019.4 |
| 20260902133626 | 23 | 202 | 0.0 | 4.8 | 0.00 | 0.00 | 0.00 | 62 | 1019.5 |
| 20260902133526 | 23 | 198 | 0.0 | 4.8 | 0.00 | 0.00 | 0.00 | 62 | 1019.3 |
| 20260902133457 | 23 | 192 | 0.0 | 4.8 | 0.00 | 0.00 | 0.00 | 62 | 1019.2 |
| 20260902133441 | 23 | 198 | 0.0 | 4.8 | 0.00 | 0.00 | 0.00 | 62 | 1019.5 |
| 20260902133428 | 23 | 185 | 0.0 | 4.8 | 0.00 | 0.00 | 0.00 | 61 | 1019.3 |
| 20260902133114 | 23 | 139 | 0.0 | 4.8 | 0.00 | 0.00 | 0.00 | 62 | 1019.2 |
| 20260902133014 | 23 | 54 | 3.2 | 4.8 | 0.00 | 0.00 | 0.00 | 63 | 1019.3 |
| 20260902132914 | 23 | 173 | 1.6 | 3.2 | 0.00 | 0.00 | 0.00 | 63 | 1019.1 |
| 20260902132814 | 23 | 28 | 1.6 | 4.8 | 0.00 | 0.00 | 0.00 | 61 | 1019.2 |
| 20260902132748 | 23 | 178 | 0.0 | 4.8 | 0.00 | 0.00 | 0.00 | 61 | 1019.3 |
| 20260902132714 | 23 | 242 | 0.0 | 4.8 | 0.00 | 0.00 | 0.00 | 62 | 1019.3 |
| 20260902132614 | 23 | 195 | 0.0 | 4.8 | 0.00 | 0.00 | 0.00 | 62 | 1019.4 |
| 20260902132514 | 23 | 201 | 0.0 | 4.8 | 0.00 | 0.00 | 0.00 | 62 | 1019.0 |
| 20260902132414 | 23 | 196 | 0.0 | 4.8 | 0.00 | 0.00 | 0.00 | 62 | 1019.1 |
| 20260902132314 | 23 | 196 | 0.0 | 4.8 | 0.00 | 0.00 | 0.00 | 62 | 1019.2 |
| 20260902132246 | 23 | 200 | 0.0 | 4.8 | 0.00 | 0.00 | 0.00 | 62 | 1019.0 |
| 20260902132231 | 24 | 169 | 0.0 | 11.3 | 0.00 | 0.00 | 0.00 | 61 | 1019.3 |
| 20260902132226 | 24 | 202 | 0.0 | 11.3 | 0.00 | 0.00 | 0.00 | 61 | 1019.2 |
| 20260902132221 | 23 | 195 | 0.0 | 4.8 | 0.00 | 0.00 | 0.00 | 62 | 1019.0 |
| 20260902132206 | 23 | 205 | 0.0 | 4.8 | 0.00 | 0.00 | 0.00 | 61 | 1019.2 |
| 20260902132149 | 23 | 225 | 0.0 | 4.8 | 0.00 | 0.00 | 0.00 | 61 | 1019.4 |
| 20260902132133 | 23 | 198 | 1.6 | 4.8 | 0.00 | 0.00 | 0.00 | 60 | 1019.2 |
| 20260902131901 | 24 | 180 | 1.6 | 4.8 | 0.00 | 0.00 | 0.00 | 60 | 1019.2 |
| 20260902131850 | 24 | 221 | 1.6 | 4.8 | 0.00 | 0.00 | 0.00 | 60 | 1019.3 |
| 20260902131835 | 24 | 202 | 0.0 | 4.8 | 0.00 | 0.00 | 0.00 | 60 | 1019.4 |
| 20260902131819 | 24 | 196 | 0.0 | 4.8 | 0.00 | 0.00 | 0.00 | 60 | 1019.3 |
| 20260902131543 | 24 | 201 | 0.0 | 11.3 | 0.00 | 0.00 | 0.00 | 60 | 1019.2 |
| 20260902131315 | 24 | 203 | 0.0 | 11.3 | 0.00 | 0.00 | 0.00 | 61 | 1019.3 |
| 20260902131259 | 24 | 219 | 1.6 | 11.3 | 0.00 | 0.00 | 0.00 | 61 | 1019.3 |
| 20260902131034 | 24 | 198 | 0.0 | 11.3 | 0.00 | 0.00 | 0.00 | 61 | 1019.3 |
| 20260902131019 | 24 | 233 | 1.6 | 11.3 | 0.00 | 0.00 | 0.00 | 60 | 1019.3 |
| 20260902131003 | 24 | 196 | 1.6 | 11.3 | 0.00 | 0.00 | 0.00 | 61 | 1019.3 |
| 20260902130702 | 24 | 204 | 0.0 | 11.3 | 0.00 | 0.00 | 0.00 | 62 | 1019.4 |
| 20260902130602 | 23 | 206 | 0.0 | 11.3 | 0.00 | 0.00 | 0.00 | 61 | 1019.3 |
| 20260902130542 | 23 | 203 | 0.0 | 1.6 | 0.00 | 0.00 | 0.00 | 64 | 1019.3 |
| 20260902130534 | 23 | 199 | 0.0 | 11.3 | 0.00 | 0.00 | 0.00 | 61 | 1019.3 |
| 20260902130518 | 23 | 223 | 6.4 | 11.3 | 0.00 | 0.00 | 0.00 | 61 | 1019.2 |
| 20260902130503 | 23 | 203 | 0.0 | 1.6 | 0.00 | 0.00 | 0.00 | 63 | 1019.3 |
| 20260902130203 | 23 | 201 | 0.0 | 1.6 | 0.00 | 0.00 | 0.00 | 64 | 1019.6 |
| 20260902130103 | 23 | 188 | 0.0 | 1.6 | 0.00 | 0.00 | 0.00 | 65 | 1019.5 |
| 20260902130043 | 23 | 202 | 0.0 | 1.6 | 0.00 | 0.00 | 0.00 | 65 | 1019.3 |
| 20260902130035 | 23 | 184 | 0.0 | 1.6 | 0.00 | 0.00 | 0.00 | 65 | 1019.3 |
| 20260902130019 | 23 | 199 | 0.0 | 1.6 | 0.00 | 0.00 | 0.00 | 65 | 1019.5 |
| 20260902130003 | 23 | 202 | 0.0 | 1.6 | 0.00 | 0.00 | 0.00 | 65 | 1019.3 |
| 20260902125703 | 23 | 195 | 0.0 | 1.6 | 0.00 | 0.00 | 0.00 | 65 | 1019.3 |
| 20260902125602 | 23 | 196 | 0.0 | 1.6 | 0.00 | 0.00 | 0.00 | 64 | 1019.3 |
| 20260902125502 | 24 | 196 | 0.0 | 3.2 | 0.00 | 0.00 | 0.00 | 64 | 1019.4 |
| 20260902125404 | 24 | 160 | 0.0 | 3.2 | 0.00 | 0.00 | 0.00 | 63 | 1019.4 |
| 20260902125305 | 24 | 162 | 0.0 | 3.2 | 0.00 | 0.00 | 0.00 | 63 | 1019.4 |
| 20260902125246 | 24 | 198 | 0.0 | 3.2 | 0.00 | 0.00 | 0.00 | 62 | 1019.4 |
| 20260902125203 | 24 | 179 | 0.0 | 3.2 | 0.00 | 0.00 | 0.00 | 63 | 1019.5 |
| 20260902125103 | 24 | 202 | 0.0 | 3.2 | 0.00 | 0.00 | 0.00 | 64 | 1019.5 |
| 20260902125033 | 24 | 174 | 0.0 | 3.2 | 0.00 | 0.00 | 0.00 | 63 | 1019.5 |
| 20260902125017 | 25 | 119 | 0.0 | 4.8 | 0.00 | 0.00 | 0.00 | 63 | 1019.4 |
| 20260902124750 | 25 | 212 | 0.0 | 4.8 | 0.00 | 0.00 | 0.00 | 61 | 1019.3 |
| 20260902124650 | 25 | 184 | 0.0 | 4.8 | 0.00 | 0.00 | 0.00 | 60 | 1019.5 |
| 20260902124550 | 25 | 211 | 0.0 | 4.8 | 0.00 | 0.00 | 0.00 | 60 | 1019.6 |
| 20260902124450 | 25 | 207 | 0.0 | 4.8 | 0.00 | 0.00 | 0.00 | 61 | 1019.6 |
| 20260902124433 | 24 | 216 | 0.0 | 4.8 | 0.00 | 0.00 | 0.00 | 61 | 1019.4 |
| 20260902124411 | 24 | 204 | 0.0 | 4.8 | 0.00 | 0.00 | 0.00 | 62 | 1019.5 |
| 20260902124051 | 24 | 173 | 1.6 | 4.8 | 0.00 | 0.00 | 0.00 | 61 | 1019.4 |
| 20260902124032 | 24 | 187 | 1.6 | 4.8 | 0.00 | 0.00 | 0.00 | 62 | 1019.4 |
| 20260902124016 | 24 | 206 | 0.0 | 3.2 | 0.00 | 0.00 | 0.00 | 61 | 1019.4 |
| 20260902123750 | 24 | 200 | 0.0 | 3.2 | 0.00 | 0.00 | 0.00 | 61 | 1019.6 |
| 20260902123650 | 24 | 205 | 0.0 | 1.6 | 0.00 | 0.00 | 0.00 | 63 | 1019.3 |
| 20260902123551 | 24 | 199 | 0.0 | 1.6 | 0.00 | 0.00 | 0.00 | 64 | 1019.3 |
| 20260902123450 | 24 | 196 | 0.0 | 1.6 | 0.00 | 0.00 | 0.00 | 64 | 1019.6 |
| 20260902123350 | 23 | 200 | 0.0 | 1.6 | 0.00 | 0.00 | 0.00 | 65 | 1019.5 |
| 20260902123252 | 23 | 202 | 0.0 | 3.2 | 0.00 | 0.00 | 0.00 | 64 | 1019.6 |
| 20260902123151 | 23 | 203 | 0.0 | 3.2 | 0.00 | 0.00 | 0.00 | 66 | 1019.5 |
| 20260902123050 | 23 | 208 | 0.0 | 3.2 | 0.00 | 0.00 | 0.00 | 68 | 1019.4 |
| 20260902122951 | 23 | 198 | 0.0 | 3.2 | 0.00 | 0.00 | 0.00 | 66 | 1019.5 |
| 20260902122851 | 23 | 201 | 0.0 | 3.2 | 0.00 | 0.00 | 0.00 | 66 | 1019.6 |
| 20260902122828 | 23 | 197 | 0.0 | 3.2 | 0.00 | 0.00 | 0.00 | 66 | 1019.6 |
| 20260902122811 | 23 | 202 | 0.0 | 3.2 | 0.00 | 0.00 | 0.00 | 66 | 1019.7 |
| 20260902122450 | 23 | 187 | 0.0 | 3.2 | 0.00 | 0.00 | 0.00 | 65 | 1019.7 |
| 20260902122350 | 23 | 171 | 1.6 | 3.2 | 0.00 | 0.00 | 0.00 | 65 | 1019.8 |
| 20260902122250 | 23 | 204 | 0.0 | 3.2 | 0.00 | 0.00 | 0.00 | 65 | 1019.6 |
| 20260902122151 | 23 | 201 | 0.0 | 3.2 | 0.00 | 0.00 | 0.00 | 66 | 1019.7 |
| 20260902122054 | 23 | 199 | 0.0 | 4.8 | 0.00 | 0.00 | 0.00 | 64 | 1019.7 |
| 20260902122050 | 23 | 194 | 0.0 | 3.2 | 0.00 | 0.00 | 0.00 | 66 | 1019.7 |
| 20260902122034 | 23 | 200 | 0.0 | 3.2 | 0.00 | 0.00 | 0.00 | 64 | 1019.6 |
| 20260902122018 | 23 | 201 | 0.0 | 3.2 | 0.00 | 0.00 | 0.00 | 64 | 1019.4 |
| 20260902122000 | 23 | 199 | 0.0 | 4.8 | 0.00 | 0.00 | 0.00 | 64 | 1019.7 |
| 20260902121650 | 23 | 206 | 0.0 | 4.8 | 0.00 | 0.00 | 0.00 | 65 | 1019.9 |
| 20260902121551 | 23 | 195 | 0.0 | 4.8 | 0.00 | 0.00 | 0.00 | 64 | 1019.6 |
| 20260902121451 | 23 | 198 | 0.0 | 4.8 | 0.00 | 0.00 | 0.00 | 64 | 1019.8 |
| 20260902121349 | 23 | 200 | 0.0 | 4.8 | 0.00 | 0.00 | 0.00 | 64 | 1019.8 |
| 20260902121250 | 23 | 196 | 0.0 | 4.8 | 0.00 | 0.00 | 0.00 | 65 | 1019.7 |
| 20260902121229 | 23 | 197 | 0.0 | 4.8 | 0.00 | 0.00 | 0.00 | 65 | 1019.8 |
| 20260902121212 | 23 | 196 | 0.0 | 4.8 | 0.00 | 0.00 | 0.00 | 64 | 1019.7 |
| 20260902120850 | 23 | 202 | 0.0 | 4.8 | 0.00 | 0.00 | 0.00 | 64 | 1019.6 |
| 20260902120750 | 23 | 200 | 0.0 | 3.2 | 0.00 | 0.00 | 0.00 | 65 | 1019.5 |
| 20260902120727 | 23 | 183 | 0.0 | 3.2 | 0.00 | 0.00 | 0.00 | 64 | 1019.8 |
| 20260902120711 | 23 | 203 | 0.0 | 3.2 | 0.00 | 0.00 | 0.00 | 65 | 1019.8 |
| 20260902120350 | 23 | 163 | 1.6 | 3.2 | 0.00 | 0.00 | 0.00 | 66 | 1019.6 |
| 20260902120250 | 23 | 173 | 0.0 | 3.2 | 0.00 | 0.00 | 0.00 | 65 | 1019.7 |
| 20260902120234 | 23 | 201 | 0.0 | 3.2 | 0.00 | 0.00 | 0.00 | 65 | 1019.7 |
| 20260902120150 | 23 | 89 | 0.0 | 3.2 | 0.00 | 0.00 | 0.00 | 65 | 1020.0 |
| 20260902120050 | 23 | 172 | 0.0 | 3.2 | 0.00 | 0.00 | 0.00 | 64 | 1019.7 |
| 20260902115950 | 24 | 158 | 1.6 | 3.2 | 0.00 | 0.00 | 0.00 | 64 | 1020.0 |
| 20260902115851 | 23 | 184 | 1.6 | 3.2 | 0.00 | 0.00 | 0.00 | 64 | 1019.7 |
| 20260902115750 | 23 | 146 | 1.6 | 3.2 | 0.00 | 0.00 | 0.00 | 63 | 1019.6 |
| 20260902115735 | 23 | 47 | 1.6 | 3.2 | 0.00 | 0.00 | 0.00 | 63 | 1019.6 |
| 20260902115650 | 23 | 227 | 0.0 | 3.2 | 0.00 | 0.00 | 0.00 | 63 | 1019.7 |
| 20260902115551 | 23 | 191 | 0.0 | 3.2 | 0.00 | 0.00 | 0.00 | 63 | 1019.7 |
| 20260902115450 | 23 | 177 | 1.6 | 3.2 | 0.00 | 0.00 | 0.00 | 62 | 1019.9 |
| 20260902115349 | 23 | 198 | 0.0 | 3.2 | 0.00 | 0.00 | 0.00 | 61 | 1019.7 |
| 20260902115251 | 23 | 200 | 0.0 | 3.2 | 0.00 | 0.00 | 0.00 | 61 | 1019.9 |
| 20260902115234 | 23 | 210 | 0.0 | 3.2 | 0.00 | 0.00 | 0.00 | 61 | 1019.9 |
| 20260902115150 | 23 | 189 | 0.0 | 4.8 | 0.00 | 0.00 | 0.00 | 61 | 1019.8 |
| 20260902115051 | 23 | 190 | 0.0 | 4.8 | 0.00 | 0.00 | 0.00 | 62 | 1019.7 |
| 20260902114950 | 23 | 194 | 1.6 | 4.8 | 0.00 | 0.00 | 0.00 | 61 | 1019.7 |
| 20260902114850 | 23 | 168 | 0.0 | 4.8 | 0.00 | 0.00 | 0.00 | 61 | 1019.9 |
| 20260902114735 | 23 | 197 | 0.0 | 4.8 | 0.00 | 0.00 | 0.00 | 61 | 1019.8 |
| 20260902114651 | 23 | 199 | 0.0 | 4.8 | 0.00 | 0.00 | 0.00 | 61 | 1019.7 |
| 20260902114551 | 24 | 152 | 0.0 | 4.8 | 0.00 | 0.00 | 0.00 | 60 | 1019.7 |
| 20260902114450 | 24 | 202 | 1.6 | 4.8 | 0.00 | 0.00 | 0.00 | 59 | 1019.8 |
| 20260902114350 | 24 | 196 | 0.0 | 6.4 | 0.00 | 0.00 | 0.00 | 60 | 1019.6 |
| 20260902114251 | 24 | 150 | 0.0 | 6.4 | 0.00 | 0.00 | 0.00 | 62 | 1019.9 |
| 20260902114235 | 24 | 223 | 0.0 | 6.4 | 0.00 | 0.00 | 0.00 | 62 | 1019.9 |
| 20260902114150 | 24 | 217 | 1.6 | 6.4 | 0.00 | 0.00 | 0.00 | 61 | 1019.7 |
| 20260902114050 | 24 | 194 | 0.0 | 6.4 | 0.00 | 0.00 | 0.00 | 60 | 1019.8 |
| 20260902113951 | 24 | 202 | 0.0 | 6.4 | 0.00 | 0.00 | 0.00 | 60 | 1019.9 |
| 20260902113850 | 24 | 197 | 0.0 | 6.4 | 0.00 | 0.00 | 0.00 | 60 | 1019.8 |
| 20260902113750 | 24 | 178 | 0.0 | 6.4 | 0.00 | 0.00 | 0.00 | 61 | 1019.8 |
| 20260902113735 | 24 | 171 | 0.0 | 6.4 | 0.00 | 0.00 | 0.00 | 61 | 1019.8 |
| 20260902113717 | 23 | 199 | 0.0 | 3.2 | 0.00 | 0.00 | 0.00 | 62 | 1019.9 |
| 20260902113711 | 24 | 197 | 0.0 | 6.4 | 0.00 | 0.00 | 0.00 | 59 | 1019.7 |
| 20260902113653 | 25 | 208 | 1.6 | 6.4 | 0.00 | 0.00 | 0.00 | 59 | 1020.0 |
| 20260902113637 | 25 | 217 | 4.8 | 6.4 | 0.00 | 0.00 | 0.00 | 59 | 1019.8 |
| 20260902113621 | 25 | 210 | 1.6 | 4.8 | 0.00 | 0.00 | 0.00 | 59 | 1019.9 |
| 20260902113348 | 24 | 210 | 0.0 | 1.6 | 0.00 | 0.00 | 0.00 | 62 | 1019.8 |
| 20260902113339 | 23 | 210 | 0.0 | 1.6 | 0.00 | 0.00 | 0.00 | 62 | 1019.9 |
| 20260902113323 | 23 | 204 | 0.0 | 1.6 | 0.00 | 0.00 | 0.00 | 62 | 1020.0 |
| 20260902113309 | 23 | 196 | 0.0 | 3.2 | 0.00 | 0.00 | 0.00 | 62 | 1020.0 |
| 20260902113032 | 23 | 201 | 0.0 | 3.2 | 0.00 | 0.00 | 0.00 | 62 | 1019.9 |
| 20260902112803 | 23 | 206 | 0.0 | 3.2 | 0.00 | 0.00 | 0.00 | 61 | 1019.9 |
| 20260902112747 | 23 | 198 | 0.0 | 3.2 | 0.00 | 0.00 | 0.00 | 61 | 1020.0 |
| 20260902112731 | 24 | 199 | 0.0 | 3.2 | 0.00 | 0.00 | 0.00 | 61 | 1019.8 |
| 20260902112223 | 24 | 193 | 0.0 | 3.2 | 0.00 | 0.00 | 0.00 | 59 | 1020.0 |
| 20260902112150 | 25 | 200 | 0.0 | 3.2 | 0.00 | 0.00 | 0.00 | 60 | 1020.2 |
| 20260902112051 | 25 | 185 | 0.0 | 3.2 | 0.00 | 0.00 | 0.00 | 59 | 1019.9 |
| 20260902111951 | 25 | 204 | 0.0 | 3.2 | 0.00 | 0.00 | 0.00 | 58 | 1019.7 |
| 20260902111851 | 25 | 205 | 0.0 | 6.4 | 0.00 | 0.00 | 0.00 | 59 | 1019.9 |
| 20260902111751 | 25 | 201 | 0.0 | 6.4 | 0.00 | 0.00 | 0.00 | 59 | 1019.9 |
| 20260902111722 | 25 | 200 | 0.0 | 6.4 | 0.00 | 0.00 | 0.00 | 59 | 1019.9 |
| 20260902111713 | 25 | 251 | 0.0 | 3.2 | 0.00 | 0.00 | 0.00 | 59 | 1019.9 |
| 20260902111706 | 25 | 211 | 1.6 | 4.8 | 0.00 | 0.00 | 0.00 | 59 | 1020.1 |
| 20260902111701 | 25 | 152 | 0.0 | 6.4 | 0.00 | 0.00 | 0.00 | 59 | 1019.9 |
| 20260902111644 | 25 | 222 | 0.0 | 6.4 | 0.00 | 0.00 | 0.00 | 57 | 1019.9 |
| 20260902111628 | 25 | 204 | 0.0 | 6.4 | 0.00 | 0.00 | 0.00 | 57 | 1020.0 |
| 20260902111613 | 25 | 190 | 0.0 | 6.4 | 0.00 | 0.00 | 0.00 | 59 | 1020.0 |
| 20260902111557 | 25 | 205 | 0.0 | 14.5 | 0.00 | 0.00 | 0.00 | 59 | 1019.9 |
| 20260902111543 | 25 | 191 | 0.0 | 14.5 | 0.00 | 0.00 | 0.00 | 60 | 1019.9 |
| 20260902111314 | 25 | 184 | 3.2 | 14.5 | 0.00 | 0.00 | 0.00 | 58 | 1019.7 |
| 20260902111257 | 25 | 117 | 0.0 | 14.5 | 0.00 | 0.00 | 0.00 | 59 | 1020.0 |
| 20260902111241 | 25 | 203 | 0.0 | 14.5 | 0.00 | 0.00 | 0.00 | 59 | 1019.8 |
| 20260902111225 | 25 | 205 | 0.0 | 14.5 | 0.00 | 0.00 | 0.00 | 62 | 1020.1 |
| 20260902111208 | 25 | 210 | 0.0 | 14.5 | 0.00 | 0.00 | 0.00 | 60 | 1020.1 |
| 20260902110939 | 24 | 217 | 0.0 | 14.5 | 0.00 | 0.00 | 0.00 | 59 | 1019.8 |
| 20260902110923 | 24 | 201 | 0.0 | 14.5 | 0.00 | 0.00 | 0.00 | 59 | 1019.8 |
| 20260902110907 | 25 | 199 | 1.6 | 14.5 | 0.00 | 0.00 | 0.00 | 59 | 1019.9 |
| 20260902110851 | 25 | 232 | 4.8 | 11.3 | 0.00 | 0.00 | 0.00 | 59 | 1019.9 |
| 20260902110622 | 25 | 207 | 0.0 | 4.8 | 0.00 | 0.00 | 0.00 | 59 | 1020.0 |
| 20260902110346 | 25 | 196 | 0.0 | 14.5 | 0.00 | 0.00 | 0.00 | 59 | 1020.1 |
| 20260902110110 | 25 | 201 | 0.0 | 14.5 | 0.00 | 0.00 | 0.00 | 61 | 1020.0 |
| 20260902110053 | 25 | 199 | 0.0 | 14.5 | 0.00 | 0.00 | 0.00 | 61 | 1020.0 |
| 20260902105550 | 25 | 216 | 0.0 | 14.5 | 0.00 | 0.00 | 0.00 | 59 | 1020.1 |
| 20260902105535 | 25 | 201 | 0.0 | 14.5 | 0.00 | 0.00 | 0.00 | 59 | 1020.0 |
| 20260902105300 | 25 | 202 | 1.6 | 14.5 | 0.00 | 0.00 | 0.00 | 58 | 1019.9 |
| 20260902105251 | 25 | 213 | 4.8 | 6.4 | 0.00 | 0.00 | 0.00 | 57 | 1019.9 |
| 20260902105234 | 25 | 191 | 1.6 | 3.2 | 0.00 | 0.00 | 0.00 | 59 | 1020.1 |
| 20260902105216 | 25 | 243 | 1.6 | 3.2 | 0.00 | 0.00 | 0.00 | 60 | 1020.2 |
| 20260902105200 | 25 | 203 | 0.0 | 3.2 | 0.00 | 0.00 | 0.00 | 59 | 1020.1 |
| 20260902104925 | 25 | 196 | 0.0 | 3.2 | 0.00 | 0.00 | 0.00 | 60 | 1020.3 |
| 20260902104916 | 25 | 199 | 0.0 | 3.2 | 0.00 | 0.00 | 0.00 | 59 | 1020.0 |
| 20260902104900 | 25 | 203 | 0.0 | 3.2 | 0.00 | 0.00 | 0.00 | 61 | 1020.2 |
| 20260902104844 | 25 | 201 | 0.0 | 4.8 | 0.00 | 0.00 | 0.00 | 58 | 1020.0 |
| 20260902104828 | 26 | 189 | 0.0 | 4.8 | 0.00 | 0.00 | 0.00 | 57 | 1020.1 |
| 20260902104811 | 26 | 202 | 0.0 | 4.8 | 0.00 | 0.00 | 0.00 | 56 | 1020.1 |
| 20260902104757 | 26 | 202 | 0.0 | 4.8 | 0.00 | 0.00 | 0.00 | 57 | 1020.1 |
| 20260902104527 | 26 | 200 | 0.0 | 4.8 | 0.00 | 0.00 | 0.00 | 57 | 1020.2 |
| 20260902104511 | 26 | 200 | 0.0 | 4.8 | 0.00 | 0.00 | 0.00 | 59 | 1020.4 |
| 20260902104012 | 25 | 203 | 0.0 | 4.8 | 0.00 | 0.00 | 0.00 | 58 | 1020.3 |
| 20260902104003 | 25 | 205 | 0.0 | 4.8 | 0.00 | 0.00 | 0.00 | 57 | 1020.1 |
| 20260902103947 | 25 | 201 | 1.6 | 4.8 | 0.00 | 0.00 | 0.00 | 58 | 1020.1 |
| 20260902103931 | 25 | 198 | 0.0 | 4.8 | 0.00 | 0.00 | 0.00 | 59 | 1020.3 |
| 20260902103915 | 25 | 205 | 0.0 | 4.8 | 0.00 | 0.00 | 0.00 | 60 | 1020.2 |
| 20260902103207 | 25 | 207 | 0.0 | 4.8 | 0.00 | 0.00 | 0.00 | 59 | 1020.4 |
| 20260902102844 | 24 | 215 | 3.2 | 4.8 | 0.00 | 0.00 | 0.00 | 62 | 1020.3 |
| 20260902102745 | 24 | 242 | 1.6 | 4.8 | 0.00 | 0.00 | 0.00 | 62 | 1020.2 |
| 20260902102716 | 24 | 205 | 0.0 | 4.8 | 0.00 | 0.00 | 0.00 | 63 | 1020.2 |
| 20260902102644 | 24 | 114 | 0.0 | 4.8 | 0.00 | 0.00 | 0.00 | 63 | 1020.2 |
| 20260902102545 | 25 | 201 | 0.0 | 4.8 | 0.00 | 0.00 | 0.00 | 63 | 1020.4 |
| 20260902102445 | 25 | 200 | 0.0 | 4.8 | 0.00 | 0.00 | 0.00 | 63 | 1020.1 |
| 20260902102340 | 24 | 201 | 0.0 | 4.8 | 0.00 | 0.00 | 0.00 | 59 | 1020.3 |
| 20260902102241 | 24 | 196 | 0.0 | 4.8 | 0.00 | 0.00 | 0.00 | 60 | 1020.2 |
| 20260902102213 | 24 | 198 | 0.0 | 4.8 | 0.00 | 0.00 | 0.00 | 61 | 1020.2 |
| 20260902102143 | 24 | 196 | 0.0 | 6.4 | 0.00 | 0.00 | 0.00 | 60 | 1020.3 |
| 20260902102040 | 24 | 194 | 0.0 | 6.4 | 0.00 | 0.00 | 0.00 | 61 | 1020.2 |
| 20260902101940 | 24 | 223 | 3.2 | 6.4 | 0.00 | 0.00 | 0.00 | 62 | 1020.4 |
| 20260902101841 | 25 | 184 | 0.0 | 6.4 | 0.00 | 0.00 | 0.00 | 61 | 1020.4 |
| 20260902101740 | 25 | 192 | 0.0 | 6.4 | 0.00 | 0.00 | 0.00 | 62 | 1020.3 |
| 20260902101712 | 25 | 201 | 0.0 | 9.7 | 0.00 | 0.00 | 0.00 | 62 | 1020.3 |
| 20260902101641 | 25 | 197 | 0.0 | 9.7 | 0.00 | 0.00 | 0.00 | 62 | 1020.3 |
| 20260902101540 | 25 | 202 | 0.0 | 9.7 | 0.00 | 0.00 | 0.00 | 61 | 1020.2 |
| 20260902101440 | 25 | 201 | 0.0 | 9.7 | 0.00 | 0.00 | 0.00 | 62 | 1020.2 |
| 20260902101340 | 25 | 202 | 0.0 | 9.7 | 0.00 | 0.00 | 0.00 | 62 | 1020.3 |
| 20260902101240 | 25 | 204 | 0.0 | 9.7 | 0.00 | 0.00 | 0.00 | 61 | 1020.6 |
| 20260902101212 | 25 | 208 | 4.8 | 9.7 | 0.00 | 0.00 | 0.00 | 60 | 1020.6 |
| 20260902101140 | 25 | 196 | 1.6 | 9.7 | 0.00 | 0.00 | 0.00 | 60 | 1020.2 |
| 20260902101041 | 25 | 131 | 0.0 | 11.3 | 0.00 | 0.00 | 0.00 | 59 | 1020.4 |
| 20260902100942 | 25 | 214 | 0.0 | 11.3 | 0.00 | 0.00 | 0.00 | 59 | 1020.4 |
| 20260902100841 | 25 | 200 | 0.0 | 11.3 | 0.00 | 0.00 | 0.00 | 61 | 1020.3 |
| 20260902100741 | 25 | 236 | 4.8 | 11.3 | 0.00 | 0.00 | 0.00 | 60 | 1020.2 |
| 20260902100713 | 25 | 234 | 1.6 | 11.3 | 0.00 | 0.00 | 0.00 | 60 | 1020.2 |
| 20260902100641 | 25 | 199 | 0.0 | 11.3 | 0.00 | 0.00 | 0.00 | 61 | 1020.2 |
| 20260902100541 | 25 | 215 | 0.0 | 11.3 | 0.00 | 0.00 | 0.00 | 60 | 1020.2 |
| 20260902100440 | 25 | 217 | 1.6 | 11.3 | 0.00 | 0.00 | 0.00 | 62 | 1020.3 |
| 20260902100419 | 25 | 201 | 0.0 | 11.3 | 0.00 | 0.00 | 0.00 | 60 | 1020.2 |
| 20260902100403 | 25 | 207 | 4.8 | 11.3 | 0.00 | 0.00 | 0.00 | 58 | 1020.3 |
| 20260902100349 | 26 | 274 | 3.2 | 11.3 | 0.00 | 0.00 | 0.00 | 60 | 1020.3 |
| 20260902100340 | 26 | 228 | 6.4 | 11.3 | 0.00 | 0.00 | 0.00 | 59 | 1020.4 |
| 20260902095740 | 26 | 207 | 0.0 | 1.6 | 0.00 | 0.00 | 0.00 | 60 | 1020.2 |
| 20260902095712 | 26 | 183 | 1.6 | 1.6 | 0.00 | 0.00 | 0.00 | 59 | 1020.2 |
| 20260902095641 | 26 | 200 | 0.0 | 1.6 | 0.00 | 0.00 | 0.00 | 59 | 1020.3 |
| 20260902095542 | 25 | 202 | 0.0 | 1.6 | 0.00 | 0.00 | 0.00 | 61 | 1020.4 |
| 20260902095440 | 25 | 200 | 0.0 | 3.2 | 0.00 | 0.00 | 0.00 | 61 | 1020.3 |
| 20260902095340 | 25 | 203 | 0.0 | 3.2 | 0.00 | 0.00 | 0.00 | 63 | 1020.4 |
| 20260902095240 | 25 | 199 | 1.6 | 4.8 | 0.00 | 0.00 | 0.00 | 62 | 1020.4 |
| 20260902095212 | 25 | 199 | 1.6 | 4.8 | 0.00 | 0.00 | 0.00 | 60 | 1020.4 |
| 20260902095140 | 25 | 205 | 0.0 | 4.8 | 0.00 | 0.00 | 0.00 | 60 | 1020.4 |
| 20260902095040 | 25 | 201 | 0.0 | 4.8 | 0.00 | 0.00 | 0.00 | 62 | 1020.3 |
| 20260902095011 | 23 | 218 | 0.0 | 4.8 | 0.00 | 0.00 | 0.00 | 64 | 1020.3 |
| 20260902095003 | 24 | 205 | 0.0 | 4.8 | 0.00 | 0.00 | 0.00 | 62 | 1020.5 |
| 20260902094947 | 23 | 234 | 0.0 | 4.8 | 0.00 | 0.00 | 0.00 | 62 | 1020.5 |
| 20260902094931 | 23 | 200 | 0.0 | 4.8 | 0.00 | 0.00 | 0.00 | 63 | 1020.3 |
| 20260902094640 | 23 | 202 | 0.0 | 4.8 | 0.00 | 0.00 | 0.00 | 64 | 1020.6 |
| 20260902094616 | 23 | 204 | 1.6 | 4.8 | 0.00 | 0.00 | 0.00 | 65 | 1020.4 |
| 20260902094600 | 23 | 222 | 1.6 | 4.8 | 0.00 | 0.00 | 0.00 | 66 | 1020.4 |
| 20260902094241 | 23 | 202 | 0.0 | 3.2 | 0.00 | 0.00 | 0.00 | 63 | 1020.4 |
| 20260902094212 | 23 | 204 | 0.0 | 3.2 | 0.00 | 0.00 | 0.00 | 62 | 1020.4 |
| 20260902094141 | 23 | 203 | 0.0 | 3.2 | 0.00 | 0.00 | 0.00 | 63 | 1020.4 |
| 20260902094041 | 23 | 198 | 0.0 | 3.2 | 0.00 | 0.00 | 0.00 | 63 | 1020.3 |
| 20260902093942 | 24 | 201 | 0.0 | 3.2 | 0.00 | 0.00 | 0.00 | 65 | 1020.4 |
| 20260902093842 | 24 | 200 | 0.0 | 3.2 | 0.00 | 0.00 | 0.00 | 66 | 1020.3 |
| 20260902093741 | 24 | 201 | 0.0 | 3.2 | 0.00 | 0.00 | 0.00 | 63 | 1020.2 |
| 20260902093713 | 24 | 200 | 0.0 | 3.2 | 0.00 | 0.00 | 0.00 | 63 | 1020.2 |
| 20260902093641 | 24 | 203 | 0.0 | 3.2 | 0.00 | 0.00 | 0.00 | 63 | 1020.5 |
| 20260902093528 | 24 | 194 | 0.0 | 4.8 | 0.00 | 0.00 | 0.00 | 63 | 1020.4 |
| 20260902093428 | 24 | 200 | 0.0 | 6.4 | 0.00 | 0.00 | 0.00 | 63 | 1020.7 |
| 20260902093328 | 24 | 202 | 0.0 | 6.4 | 0.00 | 0.00 | 0.00 | 63 | 1020.4 |
| 20260902093251 | 24 | 204 | 0.0 | 6.4 | 0.00 | 0.00 | 0.00 | 63 | 1020.4 |
| 20260902093236 | 24 | 199 | 0.0 | 6.4 | 0.00 | 0.00 | 0.00 | 64 | 1020.5 |
| 20260902092917 | 24 | 201 | 0.0 | 6.4 | 0.00 | 0.00 | 0.00 | 63 | 1020.6 |
| 20260902092817 | 24 | 202 | 0.0 | 6.4 | 0.00 | 0.00 | 0.00 | 63 | 1020.4 |
| 20260902092716 | 23 | 175 | 0.0 | 6.4 | 0.00 | 0.00 | 0.00 | 62 | 1020.6 |
| 20260902092617 | 24 | 225 | 3.2 | 6.4 | 0.00 | 0.00 | 0.00 | 62 | 1020.6 |
| 20260902092552 | 24 | 139 | 1.6 | 9.7 | 0.00 | 0.00 | 0.00 | 60 | 1020.3 |
| 20260902092537 | 24 | 204 | 1.6 | 9.7 | 0.00 | 0.00 | 0.00 | 60 | 1020.5 |
| 20260902092216 | 24 | 199 | 0.0 | 9.7 | 0.00 | 0.00 | 0.00 | 62 | 1020.7 |
| 20260902092116 | 24 | 200 | 0.0 | 9.7 | 0.00 | 0.00 | 0.00 | 62 | 1020.5 |
| 20260902092016 | 24 | 157 | 0.0 | 9.7 | 0.00 | 0.00 | 0.00 | 62 | 1020.3 |
| 20260902091916 | 24 | 203 | 0.0 | 9.7 | 0.00 | 0.00 | 0.00 | 63 | 1020.5 |
| 20260902091817 | 23 | 202 | 0.0 | 9.7 | 0.00 | 0.00 | 0.00 | 63 | 1020.4 |
| 20260902091717 | 23 | 209 | 0.0 | 9.7 | 0.00 | 0.00 | 0.00 | 63 | 1020.5 |
| 20260902091616 | 23 | 199 | 3.2 | 9.7 | 0.00 | 0.00 | 0.00 | 62 | 1020.3 |
| 20260902091518 | 24 | 239 | 4.8 | 9.7 | 0.00 | 0.00 | 0.00 | 62 | 1020.5 |
| 20260902091416 | 24 | 204 | 0.0 | 3.2 | 0.00 | 0.00 | 0.00 | 63 | 1020.7 |
| 20260902091348 | 23 | 201 | 0.0 | 3.2 | 0.00 | 0.00 | 0.00 | 64 | 1020.6 |
| 20260902091326 | 23 | 204 | 0.0 | 3.2 | 0.00 | 0.00 | 0.00 | 63 | 1020.5 |
| 20260902091310 | 24 | 187 | 0.0 | 3.2 | 0.00 | 0.00 | 0.00 | 63 | 1020.4 |
| 20260902091254 | 24 | 198 | 0.0 | 3.2 | 0.00 | 0.00 | 0.00 | 62 | 1020.6 |
| 20260902091019 | 24 | 202 | 0.0 | 3.2 | 0.00 | 0.00 | 0.00 | 62 | 1020.5 |
| 20260902090750 | 23 | 198 | 0.0 | 3.2 | 0.00 | 0.00 | 0.00 | 64 | 1020.7 |
| 20260902090735 | 23 | 218 | 3.2 | 3.2 | 0.00 | 0.00 | 0.00 | 65 | 1020.8 |
| 20260902090719 | 23 | 209 | 1.6 | 1.6 | 0.00 | 0.00 | 0.00 | 65 | 1020.6 |
| 20260902090443 | 23 | 185 | 0.0 | 1.6 | 0.00 | 0.00 | 0.00 | 65 | 1020.5 |
| 20260902090216 | 23 | 151 | 1.6 | 1.6 | 0.00 | 0.00 | 0.00 | 65 | 1020.7 |
| 20260902090116 | 23 | 203 | 0.0 | 1.6 | 0.00 | 0.00 | 0.00 | 66 | 1020.4 |
| 20260902090016 | 23 | 196 | 1.6 | 1.6 | 0.00 | 0.00 | 0.00 | 68 | 1020.5 |
| 20260902085916 | 23 | 200 | 0.0 | 1.6 | 0.00 | 0.00 | 0.00 | 66 | 1020.6 |
| 20260902085816 | 23 | 202 | 0.0 | 1.6 | 0.00 | 0.00 | 0.00 | 66 | 1020.8 |
| 20260902085716 | 23 | 205 | 0.0 | 1.6 | 0.00 | 0.00 | 0.00 | 67 | 1020.4 |
| 20260902085617 | 23 | 202 | 0.0 | 1.6 | 0.00 | 0.00 | 0.00 | 67 | 1020.6 |
| 20260902085517 | 23 | 183 | 0.0 | 1.6 | 0.00 | 0.00 | 0.00 | 67 | 1020.8 |
| 20260902085416 | 23 | 200 | 0.0 | 1.6 | 0.00 | 0.00 | 0.00 | 67 | 1020.7 |
| 20260902085315 | 23 | 200 | 0.0 | 1.6 | 0.00 | 0.00 | 0.00 | 67 | 1020.6 |
| 20260902085216 | 22 | 196 | 0.0 | 1.6 | 0.00 | 0.00 | 0.00 | 69 | 1020.6 |
| 20260902085115 | 22 | 199 | 0.0 | 1.6 | 0.00 | 0.00 | 0.00 | 69 | 1020.7 |
| 20260902085017 | 22 | 199 | 0.0 | 1.6 | 0.00 | 0.00 | 0.00 | 69 | 1020.9 |
| 20260902084959 | 22 | 189 | 1.6 | 1.6 | 0.00 | 0.00 | 0.00 | 68 | 1020.5 |
| 20260902084943 | 22 | 202 | 0.0 | 1.6 | 0.00 | 0.00 | 0.00 | 68 | 1020.8 |
| 20260902084715 | 22 | 207 | 0.0 | 0.0 | 0.00 | 0.00 | 0.00 | 68 | 1020.6 |
| 20260902084250 | 22 | 202 | 0.0 | 1.6 | 0.00 | 0.00 | 0.00 | 70 | 1020.6 |
| 20260902084233 | 22 | 201 | 0.0 | 1.6 | 0.00 | 0.00 | 0.00 | 71 | 1020.5 |
| 20260902083956 | 22 | 198 | 0.0 | 1.6 | 0.00 | 0.00 | 0.00 | 70 | 1020.7 |
| 20260902083940 | 22 | 187 | 0.0 | 1.6 | 0.00 | 0.00 | 0.00 | 70 | 1020.6 |
| 20260902083927 | 22 | 169 | 0.0 | 1.6 | 0.00 | 0.00 | 0.00 | 70 | 1020.7 |
| 20260902083611 | 22 | 153 | 0.0 | 6.4 | 0.00 | 0.00 | 0.00 | 69 | 1020.8 |
| 20260902083511 | 22 | 199 | 0.0 | 6.4 | 0.00 | 0.00 | 0.00 | 69 | 1020.9 |
| 20260902083411 | 22 | 200 | 0.0 | 6.4 | 0.00 | 0.00 | 0.00 | 69 | 1020.8 |
| 20260902083311 | 22 | 202 | 0.0 | 6.4 | 0.00 | 0.00 | 0.00 | 68 | 1020.7 |
| 20260902083244 | 22 | 202 | 0.0 | 6.4 | 0.00 | 0.00 | 0.00 | 68 | 1020.8 |
| 20260902083211 | 22 | 198 | 0.0 | 6.4 | 0.00 | 0.00 | 0.00 | 68 | 1020.8 |
| 20260902083112 | 22 | 200 | 0.0 | 6.4 | 0.00 | 0.00 | 0.00 | 68 | 1020.9 |
| 20260902083012 | 22 | 199 | 0.0 | 6.4 | 0.00 | 0.00 | 0.00 | 68 | 1020.8 |
| 20260902082912 | 22 | 200 | 0.0 | 6.4 | 0.00 | 0.00 | 0.00 | 68 | 1020.6 |
| 20260902082812 | 22 | 203 | 0.0 | 6.4 | 0.00 | 0.00 | 0.00 | 68 | 1020.7 |
| 20260902082743 | 22 | 228 | 3.2 | 6.4 | 0.00 | 0.00 | 0.00 | 67 | 1020.7 |
| 20260902082711 | 22 | 210 | 0.0 | 1.6 | 0.00 | 0.00 | 0.00 | 68 | 1020.7 |
| 20260902082613 | 22 | 202 | 0.0 | 1.6 | 0.00 | 0.00 | 0.00 | 68 | 1020.9 |
| 20260902082515 | 22 | 198 | 0.0 | 1.6 | 0.00 | 0.00 | 0.00 | 67 | 1020.7 |
| 20260902082500 | 22 | 139 | 0.0 | 1.6 | 0.00 | 0.00 | 0.00 | 66 | 1020.7 |
| 20260902082444 | 22 | 200 | 0.0 | 1.6 | 0.00 | 0.00 | 0.00 | 67 | 1020.8 |
| 20260902082431 | 22 | 198 | 0.0 | 1.6 | 0.00 | 0.00 | 0.00 | 67 | 1020.7 |
| 20260902082200 | 22 | 201 | 0.0 | 1.6 | 0.00 | 0.00 | 0.00 | 68 | 1020.7 |
| 20260902082143 | 22 | 199 | 0.0 | 1.6 | 0.00 | 0.00 | 0.00 | 68 | 1020.8 |
| 20260902082128 | 22 | 202 | 0.0 | 1.6 | 0.00 | 0.00 | 0.00 | 68 | 1020.8 |
| 20260902081855 | 22 | 201 | 0.0 | 1.6 | 0.00 | 0.00 | 0.00 | 69 | 1020.7 |
| 20260902081831 | 22 | 202 | 0.0 | 1.6 | 0.00 | 0.00 | 0.00 | 69 | 1020.7 |
| 20260902081512 | 22 | 198 | 0.0 | 1.6 | 0.00 | 0.00 | 0.00 | 70 | 1020.8 |
| 20260902081411 | 22 | 192 | 0.0 | 1.6 | 0.00 | 0.00 | 0.00 | 70 | 1021.0 |
| 20260902081310 | 22 | 203 | 0.0 | 1.6 | 0.00 | 0.00 | 0.00 | 69 | 1020.7 |
| 20260902081243 | 22 | 206 | 0.0 | 1.6 | 0.00 | 0.00 | 0.00 | 68 | 1020.6 |
| 20260902081212 | 22 | 203 | 0.0 | 1.6 | 0.00 | 0.00 | 0.00 | 68 | 1020.6 |
| 20260902081139 | 22 | 214 | 0.0 | 1.6 | 0.00 | 0.00 | 0.00 | 68 | 1020.8 |
| 20260902081124 | 22 | 199 | 0.0 | 1.6 | 0.00 | 0.00 | 0.00 | 69 | 1020.6 |
| 20260902081108 | 22 | 199 | 0.0 | 1.6 | 0.00 | 0.00 | 0.00 | 70 | 1020.7 |
| 20260902081052 | 22 | 199 | 0.0 | 3.2 | 0.00 | 0.00 | 0.00 | 70 | 1020.6 |
| 20260902081039 | 22 | 196 | 0.0 | 3.2 | 0.00 | 0.00 | 0.00 | 70 | 1020.6 |
| 20260902080807 | 22 | 183 | 0.0 | 4.8 | 0.00 | 0.00 | 0.00 | 68 | 1020.7 |
| 20260902080532 | 23 | 198 | 0.0 | 4.8 | 0.00 | 0.00 | 0.00 | 65 | 1020.6 |
| 20260902080243 | 23 | 202 | 0.0 | 4.8 | 0.00 | 0.00 | 0.00 | 65 | 1020.7 |
| 20260902080210 | 23 | 206 | 0.0 | 4.8 | 0.00 | 0.00 | 0.00 | 66 | 1020.7 |
| 20260902080147 | 23 | 164 | 0.0 | 4.8 | 0.00 | 0.00 | 0.00 | 66 | 1020.8 |
| 20260902080131 | 23 | 202 | 0.0 | 4.8 | 0.00 | 0.00 | 0.00 | 65 | 1020.6 |
| 20260902075811 | 23 | 191 | 0.0 | 4.8 | 0.00 | 0.00 | 0.00 | 63 | 1020.5 |
| 20260902075743 | 23 | 191 | 0.0 | 4.8 | 0.00 | 0.00 | 0.00 | 63 | 1020.5 |
| 20260902075659 | 23 | 209 | 0.0 | 4.8 | 0.00 | 0.00 | 0.00 | 63 | 1020.7 |
| 20260902075559 | 23 | 209 | 3.2 | 4.8 | 0.00 | 0.00 | 0.00 | 63 | 1020.7 |
| 20260902075535 | 23 | 205 | 0.0 | 4.8 | 0.00 | 0.00 | 0.00 | 65 | 1020.5 |
| 20260902075518 | 23 | 209 | 0.0 | 4.8 | 0.00 | 0.00 | 0.00 | 64 | 1020.5 |
| 20260902075244 | 23 | 199 | 0.0 | 4.8 | 0.00 | 0.00 | 0.00 | 64 | 1020.6 |
| 20260902075234 | 23 | 200 | 0.0 | 4.8 | 0.00 | 0.00 | 0.00 | 64 | 1020.5 |
| 20260902075218 | 23 | 198 | 0.0 | 4.8 | 0.00 | 0.00 | 0.00 | 64 | 1020.7 |
| 20260902074859 | 23 | 203 | 0.0 | 4.8 | 0.00 | 0.00 | 0.00 | 64 | 1020.6 |
| 20260902074800 | 23 | 200 | 1.6 | 4.8 | 0.00 | 0.00 | 0.00 | 63 | 1020.6 |
| 20260902074743 | 23 | 224 | 0.0 | 1.6 | 0.00 | 0.00 | 0.00 | 64 | 1020.6 |
| 20260902074659 | 23 | 209 | 0.0 | 1.6 | 0.00 | 0.00 | 0.00 | 64 | 1020.6 |
| 20260902074636 | 22 | 201 | 0.0 | 1.6 | 0.00 | 0.00 | 0.00 | 66 | 1020.4 |
| 20260902074628 | 23 | 199 | 0.0 | 1.6 | 0.00 | 0.00 | 0.00 | 65 | 1020.6 |
| 20260902074612 | 23 | 201 | 0.0 | 1.6 | 0.00 | 0.00 | 0.00 | 65 | 1020.5 |
| 20260902074555 | 23 | 206 | 0.0 | 1.6 | 0.00 | 0.00 | 0.00 | 65 | 1020.5 |
| 20260902074331 | 23 | 200 | 0.0 | 1.6 | 0.00 | 0.00 | 0.00 | 64 | 1020.8 |
| 20260902074318 | 23 | 205 | 0.0 | 1.6 | 0.00 | 0.00 | 0.00 | 64 | 1020.8 |
| 20260902074308 | 22 | 193 | 0.0 | 1.6 | 0.00 | 0.00 | 0.00 | 65 | 1020.7 |
| 20260902074252 | 22 | 199 | 0.0 | 1.6 | 0.00 | 0.00 | 0.00 | 66 | 1020.6 |
| 20260902074016 | 22 | 201 | 0.0 | 1.6 | 0.00 | 0.00 | 0.00 | 66 | 1020.5 |
| 20260902074001 | 22 | 201 | 0.0 | 1.6 | 0.00 | 0.00 | 0.00 | 66 | 1020.4 |
| 20260902073701 | 22 | 195 | 0.0 | 1.6 | 0.00 | 0.00 | 0.00 | 66 | 1020.7 |
| 20260902073600 | 22 | 199 | 0.0 | 1.6 | 0.00 | 0.00 | 0.00 | 65 | 1020.7 |
| 20260902073458 | 22 | 198 | 0.0 | 1.6 | 0.00 | 0.00 | 0.00 | 65 | 1020.5 |
| 20260902073359 | 22 | 200 | 0.0 | 1.6 | 0.00 | 0.00 | 0.00 | 66 | 1020.6 |
| 20260902073259 | 22 | 199 | 0.0 | 1.6 | 0.00 | 0.00 | 0.00 | 66 | 1020.5 |
| 20260902073243 | 22 | 199 | 0.0 | 1.6 | 0.00 | 0.00 | 0.00 | 66 | 1020.5 |
| 20260902073159 | 22 | 199 | 0.0 | 1.6 | 0.00 | 0.00 | 0.00 | 65 | 1020.6 |
| 20260902073059 | 22 | 187 | 0.0 | 1.6 | 0.00 | 0.00 | 0.00 | 66 | 1020.6 |
| 20260902072959 | 22 | 203 | 0.0 | 1.6 | 0.00 | 0.00 | 0.00 | 66 | 1020.7 |
| 20260902072859 | 22 | 202 | 0.0 | 1.6 | 0.00 | 0.00 | 0.00 | 66 | 1020.7 |
| 20260902072758 | 22 | 195 | 0.0 | 1.6 | 0.00 | 0.00 | 0.00 | 66 | 1020.5 |
| 20260902072745 | 22 | 205 | 0.0 | 1.6 | 0.00 | 0.00 | 0.00 | 66 | 1020.5 |
| 20260902072659 | 22 | 190 | 0.0 | 1.6 | 0.00 | 0.00 | 0.00 | 67 | 1020.7 |
| 20260902072559 | 22 | 201 | 0.0 | 1.6 | 0.00 | 0.00 | 0.00 | 67 | 1020.6 |
| 20260902072500 | 22 | 195 | 0.0 | 0.0 | 0.00 | 0.00 | 0.00 | 67 | 1020.5 |
| 20260902072400 | 22 | 199 | 0.0 | 1.6 | 0.00 | 0.00 | 0.00 | 67 | 1020.4 |
| 20260902072259 | 22 | 200 | 0.0 | 1.6 | 0.00 | 0.00 | 0.00 | 67 | 1020.6 |
| 20260902072243 | 22 | 198 | 0.0 | 1.6 | 0.00 | 0.00 | 0.00 | 67 | 1020.6 |
| 20260902072200 | 22 | 198 | 0.0 | 1.6 | 0.00 | 0.00 | 0.00 | 67 | 1020.6 |
| 20260902072100 | 22 | 196 | 0.0 | 1.6 | 0.00 | 0.00 | 0.00 | 68 | 1020.5 |
| 20260902072037 | 22 | 199 | 0.0 | 1.6 | 0.00 | 0.00 | 0.00 | 68 | 1020.5 |
| 20260902072021 | 22 | 200 | 0.0 | 1.6 | 0.00 | 0.00 | 0.00 | 68 | 1020.6 |
| 20260902071953 | 22 | 198 | 0.0 | 1.6 | 0.00 | 0.00 | 0.00 | 68 | 1020.6 |
| 20260902071720 | 22 | 200 | 0.0 | 1.6 | 0.00 | 0.00 | 0.00 | 68 | 1020.3 |
| 20260902071359 | 22 | 198 | 0.0 | 3.2 | 0.00 | 0.00 | 0.00 | 67 | 1020.5 |
| 20260902071259 | 22 | 196 | 0.0 | 3.2 | 0.00 | 0.00 | 0.00 | 69 | 1020.7 |
| 20260902071244 | 22 | 196 | 0.0 | 3.2 | 0.00 | 0.00 | 0.00 | 69 | 1020.7 |
| 20260902071200 | 22 | 194 | 0.0 | 3.2 | 0.00 | 0.00 | 0.00 | 68 | 1020.5 |
| 20260902071059 | 21 | 200 | 0.0 | 3.2 | 0.00 | 0.00 | 0.00 | 68 | 1020.6 |
| 20260902070958 | 21 | 196 | 0.0 | 3.2 | 0.00 | 0.00 | 0.00 | 69 | 1020.5 |
| 20260902070859 | 21 | 196 | 0.0 | 3.2 | 0.00 | 0.00 | 0.00 | 69 | 1020.4 |
| 20260902070759 | 21 | 198 | 0.0 | 3.2 | 0.00 | 0.00 | 0.00 | 70 | 1020.4 |
| 20260902070743 | 21 | 198 | 0.0 | 3.2 | 0.00 | 0.00 | 0.00 | 70 | 1020.4 |
| 20260902070658 | 21 | 196 | 0.0 | 3.2 | 0.00 | 0.00 | 0.00 | 70 | 1020.5 |
| 20260902070635 | 21 | 196 | 0.0 | 3.2 | 0.00 | 0.00 | 0.00 | 71 | 1020.6 |
| 20260902070619 | 21 | 196 | 0.0 | 3.2 | 0.00 | 0.00 | 0.00 | 71 | 1020.6 |
| 20260902070342 | 20 | 202 | 0.0 | 1.6 | 0.00 | 0.00 | 0.00 | 73 | 1020.3 |
| 20260902070328 | 20 | 198 | 0.0 | 1.6 | 0.00 | 0.00 | 0.00 | 73 | 1020.3 |
| 20260902070318 | 21 | 203 | 0.0 | 1.6 | 0.00 | 0.00 | 0.00 | 72 | 1020.7 |
| 20260902070024 | 18 | 193 | 0.0 | 0.0 | 0.00 | 0.00 | 0.00 | 78 | 1020.1 |
| 20260902070017 | 21 | 196 | 0.0 | 1.6 | 0.00 | 0.00 | 0.00 | 71 | 1020.6 |
| 20260902070001 | 21 | 198 | 0.0 | 1.6 | 0.00 | 0.00 | 0.00 | 71 | 1020.6 |
| 20260902065932 | 21 | 196 | 0.0 | 1.6 | 0.00 | 0.00 | 0.00 | 71 | 1020.4 |
| 20260902065919 | 21 | 196 | 0.0 | 1.6 | 0.00 | 0.00 | 0.00 | 72 | 1020.5 |
| 20260902065903 | 20 | 196 | 0.0 | 1.6 | 0.00 | 0.00 | 0.00 | 72 | 1020.5 |
| 20260902065419 | 20 | 201 | 0.0 | 1.6 | 0.00 | 0.00 | 0.00 | 73 | 1020.5 |
| 20260902065403 | 20 | 214 | 0.0 | 1.6 | 0.00 | 0.00 | 0.00 | 73 | 1020.4 |
| 20260902065350 | 20 | 201 | 0.0 | 1.6 | 0.00 | 0.00 | 0.00 | 73 | 1020.4 |
| 20260902065339 | 20 | 203 | 0.0 | 1.6 | 0.00 | 0.00 | 0.00 | 72 | 1020.6 |
| 20260902065322 | 20 | 200 | 0.0 | 1.6 | 0.00 | 0.00 | 0.00 | 72 | 1020.4 |
| 20260902065307 | 20 | 202 | 0.0 | 1.6 | 0.00 | 0.00 | 0.00 | 72 | 1020.3 |
| 20260902065250 | 20 | 204 | 0.0 | 1.6 | 0.00 | 0.00 | 0.00 | 73 | 1020.3 |
| 20260902065223 | 20 | 199 | 0.0 | 1.6 | 0.00 | 0.00 | 0.00 | 73 | 1020.5 |
| 20260902064950 | 20 | 201 | 0.0 | 1.6 | 0.00 | 0.00 | 0.00 | 74 | 1020.4 |
| 20260902064934 | 20 | 200 | 0.0 | 1.6 | 0.00 | 0.00 | 0.00 | 74 | 1020.6 |
| 20260902064442 | 19 | 197 | 0.0 | 1.6 | 0.00 | 0.00 | 0.00 | 75 | 1020.3 |
| 20260902064431 | 19 | 204 | 1.6 | 1.6 | 0.00 | 0.00 | 0.00 | 75 | 1020.6 |
| 20260902064416 | 19 | 194 | 0.0 | 0.0 | 0.00 | 0.00 | 0.00 | 75 | 1020.4 |
| 20260902064140 | 19 | 199 | 0.0 | 0.0 | 0.00 | 0.00 | 0.00 | 76 | 1020.3 |
| 20260902064111 | 18 | 202 | 0.0 | 0.0 | 0.00 | 0.00 | 0.00 | 77 | 1020.4 |
| 20260902064059 | 18 | 197 | 0.0 | 0.0 | 0.00 | 0.00 | 0.00 | 77 | 1020.4 |
| 20260902063823 | 18 | 230 | 0.0 | 0.0 | 0.00 | 0.00 | 0.00 | 77 | 1020.5 |
| 20260902063807 | 18 | 197 | 0.0 | 0.0 | 0.00 | 0.00 | 0.00 | 77 | 1020.5 |
| 20260902063320 | 18 | 192 | 0.0 | 0.0 | 0.00 | 0.00 | 0.00 | 78 | 1020.5 |
| 20260902062959 | 18 | 196 | 0.0 | 0.0 | 0.00 | 0.00 | 0.00 | 77 | 1020.6 |
| 20260902062901 | 18 | 194 | 0.0 | 0.0 | 0.00 | 0.00 | 0.00 | 78 | 1020.5 |
| 20260902062759 | 18 | 197 | 0.0 | 0.0 | 0.00 | 0.00 | 0.00 | 77 | 1020.4 |
| 20260902062743 | 18 | 196 | 0.0 | 0.0 | 0.00 | 0.00 | 0.00 | 77 | 1020.4 |
| 20260902062700 | 18 | 181 | 0.0 | 0.0 | 0.00 | 0.00 | 0.00 | 77 | 1020.5 |
| 20260902062559 | 18 | 199 | 0.0 | 0.0 | 0.00 | 0.00 | 0.00 | 77 | 1020.4 |
| 20260902062500 | 18 | 194 | 0.0 | 0.0 | 0.00 | 0.00 | 0.00 | 76 | 1020.4 |
| 20260902062359 | 18 | 192 | 0.0 | 0.0 | 0.00 | 0.00 | 0.00 | 76 | 1020.4 |
| 20260902062259 | 19 | 192 | 0.0 | 0.0 | 0.00 | 0.00 | 0.00 | 77 | 1020.4 |
| 20260902062159 | 19 | 191 | 0.0 | 0.0 | 0.00 | 0.00 | 0.00 | 75 | 1020.1 |
| 20260902062059 | 19 | 193 | 0.0 | 0.0 | 0.00 | 0.00 | 0.00 | 75 | 1020.3 |
| 20260902061959 | 19 | 192 | 0.0 | 0.0 | 0.00 | 0.00 | 0.00 | 76 | 1020.4 |
| 20260902061859 | 19 | 192 | 0.0 | 0.0 | 0.00 | 0.00 | 0.00 | 76 | 1020.4 |
| 20260902061743 | 18 | 192 | 0.0 | 0.0 | 0.00 | 0.00 | 0.00 | 77 | 1020.0 |
| 20260902061711 | 18 | 192 | 0.0 | 0.0 | 0.00 | 0.00 | 0.00 | 77 | 1020.3 |
| 20260902061656 | 18 | 192 | 0.0 | 0.0 | 0.00 | 0.00 | 0.00 | 77 | 1020.3 |
| 20260902061640 | 18 | 192 | 0.0 | 0.0 | 0.00 | 0.00 | 0.00 | 77 | 1020.3 |
| 20260902061625 | 18 | 192 | 0.0 | 0.0 | 0.00 | 0.00 | 0.00 | 78 | 1020.3 |
| 20260902061358 | 18 | 192 | 0.0 | 0.0 | 0.00 | 0.00 | 0.00 | 78 | 1020.3 |
| 20260902061342 | 18 | 193 | 0.0 | 0.0 | 0.00 | 0.00 | 0.00 | 77 | 1020.3 |
| 20260902061327 | 18 | 193 | 0.0 | 0.0 | 0.00 | 0.00 | 0.00 | 77 | 1020.2 |
| 20260902060747 | 18 | 193 | 0.0 | 0.0 | 0.00 | 0.00 | 0.00 | 78 | 1020.2 |
| 20260902060722 | 18 | 193 | 0.0 | 0.0 | 0.00 | 0.00 | 0.00 | 78 | 1020.4 |
| 20260902060706 | 18 | 192 | 0.0 | 0.0 | 0.00 | 0.00 | 0.00 | 78 | 1020.2 |
| 20260902060349 | 18 | 114 | 0.0 | 0.0 | 0.00 | 0.00 | 0.00 | 79 | 1020.2 |
| 20260902060247 | 17 | 193 | 0.0 | 0.0 | 0.00 | 0.00 | 0.00 | 80 | 1020.1 |
| 20260902060148 | 17 | 192 | 0.0 | 0.0 | 0.00 | 0.00 | 0.00 | 79 | 1020.4 |
| 20260902060046 | 17 | 109 | 0.0 | 0.0 | 0.00 | 0.00 | 0.00 | 80 | 1020.2 |
| 20260902055949 | 17 | 195 | 0.0 | 0.0 | 0.00 | 0.00 | 0.00 | 80 | 1020.2 |
| 20260902055848 | 17 | 203 | 0.0 | 0.0 | 0.00 | 0.00 | 0.00 | 80 | 1020.3 |
| 20260902055748 | 17 | 196 | 0.0 | 0.0 | 0.00 | 0.00 | 0.00 | 81 | 1020.2 |
| 20260902055647 | 17 | 195 | 0.0 | 0.0 | 0.00 | 0.00 | 0.00 | 81 | 1020.1 |
| 20260902055547 | 17 | 195 | 0.0 | 0.0 | 0.00 | 0.00 | 0.00 | 82 | 1020.1 |
| 20260902055447 | 17 | 196 | 0.0 | 0.0 | 0.00 | 0.00 | 0.00 | 82 | 1020.0 |
| 20260902055348 | 17 | 199 | 0.0 | 0.0 | 0.00 | 0.00 | 0.00 | 83 | 1020.2 |
| 20260902055326 | 15 | 194 | 0.0 | 0.0 | 0.00 | 0.00 | 0.00 | 91 | 1020.2 |
| 20260902055311 | 16 | 191 | 0.0 | 0.0 | 0.00 | 0.00 | 0.00 | 84 | 1020.2 |
| 20260902055255 | 16 | 194 | 0.0 | 0.0 | 0.00 | 0.00 | 0.00 | 84 | 1020.1 |
| 20260902055240 | 16 | 194 | 0.0 | 0.0 | 0.00 | 0.00 | 0.00 | 85 | 1020.0 |
| 20260902055224 | 16 | 194 | 0.0 | 0.0 | 0.00 | 0.00 | 0.00 | 86 | 1020.5 |
| 20260902054942 | 16 | 194 | 0.0 | 0.0 | 0.00 | 0.00 | 0.00 | 87 | 1020.1 |
| 20260902054925 | 15 | 194 | 0.0 | 0.0 | 0.00 | 0.00 | 0.00 | 88 | 1020.1 |
| 20260902054909 | 15 | 194 | 0.0 | 0.0 | 0.00 | 0.00 | 0.00 | 89 | 1020.1 |
| 20260902054854 | 15 | 194 | 0.0 | 0.0 | 0.00 | 0.00 | 0.00 | 90 | 1020.2 |
| 20260902054838 | 15 | 194 | 0.0 | 0.0 | 0.00 | 0.00 | 0.00 | 90 | 1020.4 |
| 20260902054821 | 15 | 194 | 0.0 | 0.0 | 0.00 | 0.00 | 0.00 | 91 | 1020.2 |
| 20260902054335 | 15 | 194 | 0.0 | 0.0 | 0.00 | 0.00 | 0.00 | 92 | 1020.1 |
| 20260902053850 | 14 | 193 | 0.0 | 0.0 | 0.00 | 0.00 | 0.00 | 93 | 1020.2 |
| 20260902053828 | 14 | 193 | 0.0 | 0.0 | 0.00 | 0.00 | 0.00 | 93 | 1020.1 |
| 20260902053811 | 14 | 193 | 0.0 | 0.0 | 0.00 | 0.00 | 0.00 | 94 | 1020.3 |
| 20260902053547 | 14 | 193 | 0.0 | 0.0 | 0.00 | 0.00 | 0.00 | 94 | 1020.3 |
| 20260902053531 | 14 | 192 | 0.0 | 0.0 | 0.00 | 0.00 | 0.00 | 94 | 1020.2 |
| 20260902053514 | 13 | 193 | 0.0 | 0.0 | 0.00 | 0.00 | 0.00 | 95 | 1020.5 |
| 20260902053457 | 13 | 192 | 0.0 | 0.0 | 0.00 | 0.00 | 0.00 | 95 | 1020.2 |
| 20260902053148 | 13 | 192 | 0.0 | 0.0 | 0.00 | 0.00 | 0.00 | 95 | 1020.4 |
| 20260902053047 | 13 | 192 | 0.0 | 0.0 | 0.00 | 0.00 | 0.00 | 96 | 1020.2 |
| 20260902052947 | 13 | 193 | 0.0 | 0.0 | 0.00 | 0.00 | 0.00 | 96 | 1020.1 |
| 20260902052847 | 13 | 192 | 0.0 | 0.0 | 0.00 | 0.00 | 0.00 | 96 | 1020.1 |
| 20260902052748 | 13 | 192 | 0.0 | 0.0 | 0.00 | 0.00 | 0.00 | 96 | 1020.2 |
| 20260902052723 | 13 | 192 | 0.0 | 0.0 | 0.00 | 0.00 | 0.00 | 97 | 1020.3 |
| 20260902052707 | 13 | 193 | 0.0 | 0.0 | 0.00 | 0.00 | 0.00 | 97 | 1020.4 |
| 20260902052346 | 13 | 193 | 0.0 | 0.0 | 0.00 | 0.00 | 0.00 | 97 | 1020.0 |
| 20260902052247 | 13 | 193 | 0.0 | 0.0 | 0.00 | 0.00 | 0.00 | 97 | 1020.1 |
| 20260902052148 | 13 | 193 | 0.0 | 0.0 | 0.00 | 0.00 | 0.00 | 98 | 1020.1 |
| 20260902052048 | 12 | 193 | 0.0 | 0.0 | 0.00 | 0.00 | 0.00 | 98 | 1020.1 |
| 20260902051947 | 12 | 193 | 0.0 | 0.0 | 0.00 | 0.00 | 0.00 | 98 | 1020.2 |
| 20260902051849 | 12 | 194 | 0.0 | 0.0 | 0.00 | 0.00 | 0.00 | 98 | 1020.2 |
| 20260902051749 | 12 | 194 | 0.0 | 0.0 | 0.00 | 0.00 | 0.00 | 98 | 1020.3 |
| 20260902051647 | 12 | 194 | 0.0 | 0.0 | 0.00 | 0.00 | 0.00 | 98 | 1020.1 |
| 20260902051619 | 12 | 194 | 0.0 | 0.0 | 0.00 | 0.00 | 0.00 | 98 | 1020.2 |
| 20260902051603 | 12 | 194 | 0.0 | 0.0 | 0.00 | 0.00 | 0.00 | 98 | 1020.4 |
| 20260902051547 | 12 | 194 | 0.0 | 0.0 | 0.00 | 0.00 | 0.00 | 98 | 1020.1 |
| 20260902051526 | 12 | 194 | 0.0 | 0.0 | 0.00 | 0.00 | 0.00 | 98 | 1020.1 |
| 20260902051247 | 12 | 194 | 0.0 | 0.0 | 0.00 | 0.00 | 0.00 | 98 | 1020.0 |
| 20260902051231 | 12 | 194 | 0.0 | 0.0 | 0.00 | 0.00 | 0.00 | 98 | 1020.1 |
| 20260902051217 | 12 | 194 | 0.0 | 0.0 | 0.00 | 0.00 | 0.00 | 98 | 1020.2 |
| 20260902050950 | 12 | 194 | 0.0 | 0.0 | 0.00 | 0.00 | 0.00 | 98 | 1020.3 |
| 20260902050919 | 12 | 194 | 0.0 | 0.0 | 0.00 | 0.00 | 0.00 | 98 | 1020.1 |
| 20260902050904 | 12 | 194 | 0.0 | 0.0 | 0.00 | 0.00 | 0.00 | 98 | 1020.0 |
| 20260902050848 | 12 | 194 | 0.0 | 0.0 | 0.00 | 0.00 | 0.00 | 98 | 1020.1 |
| 20260902050604 | 12 | 194 | 0.0 | 0.0 | 0.00 | 0.00 | 0.00 | 99 | 1020.1 |
| 20260902050107 | 12 | 194 | 0.0 | 0.0 | 0.00 | 0.00 | 0.00 | 99 | 1020.0 |
| 20260902045746 | 12 | 194 | 0.0 | 0.0 | 0.00 | 0.00 | 0.00 | 99 | 1020.1 |
| 20260902045721 | 12 | 194 | 0.0 | 0.0 | 0.00 | 0.00 | 0.00 | 99 | 1020.1 |
| 20260902045705 | 12 | 194 | 0.0 | 0.0 | 0.00 | 0.00 | 0.00 | 99 | 1020.1 |
| 20260902045347 | 12 | 194 | 0.0 | 0.0 | 0.00 | 0.00 | 0.00 | 99 | 1020.0 |
| 20260902045247 | 11 | 194 | 0.0 | 0.0 | 0.00 | 0.00 | 0.00 | 99 | 1020.2 |
| 20260902045222 | 11 | 194 | 0.0 | 0.0 | 0.00 | 0.00 | 0.00 | 99 | 1020.1 |
| 20260902045207 | 12 | 194 | 0.0 | 0.0 | 0.00 | 0.00 | 0.00 | 99 | 1020.2 |
| 20260902044932 | 12 | 195 | 0.0 | 0.0 | 0.00 | 0.00 | 0.00 | 100 | 1019.9 |
| 20260902044926 | 11 | 189 | 0.0 | 0.0 | 0.00 | 0.00 | 0.00 | 100 | 1020.0 |
| 20260902044918 | 11 | 194 | 0.0 | 0.0 | 0.00 | 0.00 | 0.00 | 100 | 1020.2 |
| 20260902044856 | 11 | 195 | 0.0 | 0.0 | 0.00 | 0.00 | 0.00 | 99 | 1020.2 |
| 20260902044839 | 12 | 195 | 0.0 | 0.0 | 0.00 | 0.00 | 0.00 | 100 | 1020.2 |
| 20260902044823 | 12 | 195 | 0.0 | 0.0 | 0.00 | 0.00 | 0.00 | 100 | 1020.0 |
| 20260902044808 | 12 | 195 | 0.0 | 0.0 | 0.00 | 0.00 | 0.00 | 100 | 1020.0 |
| 20260902044531 | 12 | 195 | 0.0 | 0.0 | 0.00 | 0.00 | 0.00 | 100 | 1019.9 |
| 20260902044305 | 12 | 195 | 0.0 | 0.0 | 0.00 | 0.00 | 0.00 | 100 | 1020.3 |
| 20260902044250 | 12 | 170 | 0.0 | 0.0 | 0.00 | 0.00 | 0.00 | 100 | 1020.6 |
| 20260902044234 | 12 | 189 | 0.0 | 0.0 | 0.00 | 0.00 | 0.00 | 100 | 1020.2 |
| 20260902044218 | 11 | 189 | 0.0 | 0.0 | 0.00 | 0.00 | 0.00 | 100 | 1020.1 |
| 20260902043646 | 11 | 192 | 0.0 | 0.0 | 0.00 | 0.00 | 0.00 | 100 | 1020.1 |
| 20260902043546 | 11 | 194 | 0.0 | 0.0 | 0.00 | 0.00 | 0.00 | 100 | 1020.2 |
| 20260902043446 | 11 | 194 | 0.0 | 0.0 | 0.00 | 0.00 | 0.00 | 100 | 1020.0 |
| 20260902043347 | 11 | 196 | 0.0 | 0.0 | 0.00 | 0.00 | 0.00 | 100 | 1020.0 |
| 20260902043247 | 11 | 196 | 0.0 | 0.0 | 0.00 | 0.00 | 0.00 | 100 | 1020.0 |
| 20260902043146 | 11 | 196 | 0.0 | 0.0 | 0.00 | 0.00 | 0.00 | 100 | 1020.1 |
| 20260902043124 | 11 | 196 | 0.0 | 0.0 | 0.00 | 0.00 | 0.00 | 100 | 1020.3 |
| 20260902043109 | 11 | 198 | 0.0 | 0.0 | 0.00 | 0.00 | 0.00 | 100 | 1020.1 |
| 20260902043053 | 11 | 198 | 0.0 | 0.0 | 0.00 | 0.00 | 0.00 | 100 | 1020.2 |
| 20260902042826 | 11 | 202 | 0.0 | 0.0 | 0.00 | 0.00 | 0.00 | 100 | 1020.1 |
| 20260902042808 | 11 | 259 | 0.0 | 0.0 | 0.00 | 0.00 | 0.00 | 100 | 1020.1 |
| 20260902042446 | 11 | 266 | 0.0 | 0.0 | 0.00 | 0.00 | 0.00 | 100 | 1019.8 |
| 20260902042428 | 11 | 273 | 0.0 | 0.0 | 0.00 | 0.00 | 0.00 | 100 | 1020.1 |
| 20260902042406 | 10 | 281 | 0.0 | 0.0 | 0.00 | 0.00 | 0.00 | 100 | 1020.2 |
| 20260902042047 | 10 | 195 | 0.0 | 0.0 | 0.00 | 0.00 | 0.00 | 100 | 1020.0 |
| 20260902041946 | 10 | 195 | 0.0 | 0.0 | 0.00 | 0.00 | 0.00 | 100 | 1020.0 |
| 20260902041846 | 10 | 195 | 0.0 | 0.0 | 0.00 | 0.00 | 0.00 | 100 | 1020.0 |
| 20260902041747 | 10 | 196 | 0.0 | 0.0 | 0.00 | 0.00 | 0.00 | 100 | 1020.0 |
| 20260902041646 | 10 | 196 | 0.0 | 0.0 | 0.00 | 0.00 | 0.00 | 100 | 1020.0 |
| 20260902041545 | 10 | 196 | 0.0 | 0.0 | 0.00 | 0.00 | 0.00 | 100 | 1019.9 |
| 20260902041446 | 10 | 196 | 0.0 | 0.0 | 0.00 | 0.00 | 0.00 | 100 | 1020.1 |
| 20260902041346 | 10 | 196 | 0.0 | 0.0 | 0.00 | 0.00 | 0.00 | 100 | 1019.9 |
| 20260902041246 | 10 | 196 | 0.0 | 0.0 | 0.00 | 0.00 | 0.00 | 100 | 1020.2 |
| 20260902041146 | 10 | 196 | 0.0 | 0.0 | 0.00 | 0.00 | 0.00 | 100 | 1020.1 |
| 20260902041046 | 10 | 196 | 0.0 | 0.0 | 0.00 | 0.00 | 0.00 | 100 | 1019.9 |
| 20260902040947 | 10 | 196 | 0.0 | 0.0 | 0.00 | 0.00 | 0.00 | 100 | 1019.9 |
| 20260902040930 | 10 | 196 | 0.0 | 0.0 | 0.00 | 0.00 | 0.00 | 100 | 1020.1 |
| 20260902040908 | 10 | 196 | 0.0 | 0.0 | 0.00 | 0.00 | 0.00 | 100 | 1020.1 |
| 20260902040546 | 10 | 196 | 0.0 | 0.0 | 0.00 | 0.00 | 0.00 | 100 | 1020.1 |
| 20260902040512 | 10 | 196 | 0.0 | 0.0 | 0.00 | 0.00 | 0.00 | 100 | 1020.0 |
| 20260902040456 | 10 | 196 | 0.0 | 0.0 | 0.00 | 0.00 | 0.00 | 100 | 1020.0 |
| 20260902040434 | 10 | 196 | 0.0 | 0.0 | 0.00 | 0.00 | 0.00 | 100 | 1019.8 |
| 20260902040418 | 10 | 196 | 0.0 | 0.0 | 0.00 | 0.00 | 0.00 | 100 | 1020.2 |
| 20260902040144 | 10 | 196 | 0.0 | 0.0 | 0.00 | 0.00 | 0.00 | 100 | 1020.0 |
| 20260902040128 | 10 | 196 | 0.0 | 0.0 | 0.00 | 0.00 | 0.00 | 100 | 1019.8 |
| 20260902040106 | 10 | 196 | 0.0 | 0.0 | 0.00 | 0.00 | 0.00 | 100 | 1020.2 |
| 20260902035556 | 10 | 196 | 0.0 | 0.0 | 0.00 | 0.00 | 0.00 | 100 | 1020.1 |
| 20260902035541 | 10 | 196 | 0.0 | 0.0 | 0.00 | 0.00 | 0.00 | 100 | 1020.0 |
| 20260902035315 | 10 | 196 | 0.0 | 0.0 | 0.00 | 0.00 | 0.00 | 100 | 1020.0 |
| 20260902035300 | 10 | 196 | 0.0 | 0.0 | 0.00 | 0.00 | 0.00 | 100 | 1019.9 |
| 20260902035245 | 10 | 196 | 0.0 | 0.0 | 0.00 | 0.00 | 0.00 | 100 | 1019.8 |
| 20260902035228 | 10 | 196 | 0.0 | 0.0 | 0.00 | 0.00 | 0.00 | 100 | 1020.0 |
| 20260902035213 | 10 | 196 | 0.0 | 0.0 | 0.00 | 0.00 | 0.00 | 100 | 1020.0 |
| 20260902035143 | 10 | 196 | 0.0 | 0.0 | 0.00 | 0.00 | 0.00 | 100 | 1019.9 |
| 20260902034912 | 10 | 196 | 0.0 | 0.0 | 0.00 | 0.00 | 0.00 | 100 | 1019.9 |
| 20260902034857 | 10 | 196 | 0.0 | 0.0 | 0.00 | 0.00 | 0.00 | 100 | 1019.6 |
| 20260902034842 | 11 | 196 | 0.0 | 0.0 | 0.00 | 0.00 | 0.00 | 100 | 1019.9 |
| 20260902034814 | 11 | 196 | 0.0 | 0.0 | 0.00 | 0.00 | 0.00 | 100 | 1019.8 |
| 20260902034531 | 11 | 196 | 0.0 | 0.0 | 0.00 | 0.00 | 0.00 | 100 | 1020.0 |
| 20260902033817 | 10 | 196 | 0.0 | 0.0 | 0.00 | 0.00 | 0.00 | 100 | 1019.9 |
| 20260902033806 | 10 | 196 | 0.0 | 0.0 | 0.00 | 0.00 | 0.00 | 100 | 1020.0 |
| 20260902033447 | 10 | 196 | 0.0 | 0.0 | 0.00 | 0.00 | 0.00 | 100 | 1019.9 |
| 20260902033429 | 11 | 196 | 0.0 | 0.0 | 0.00 | 0.00 | 0.00 | 100 | 1020.0 |
| 20260902033401 | 11 | 196 | 0.0 | 0.0 | 0.00 | 0.00 | 0.00 | 100 | 1019.9 |
| 20260902033046 | 11 | 196 | 0.0 | 0.0 | 0.00 | 0.00 | 0.00 | 100 | 1019.8 |
| 20260902033024 | 11 | 196 | 0.0 | 0.0 | 0.00 | 0.00 | 0.00 | 100 | 1019.9 |
| 20260902033008 | 11 | 196 | 0.0 | 0.0 | 0.00 | 0.00 | 0.00 | 100 | 1020.0 |
| 20260902032937 | 11 | 196 | 0.0 | 0.0 | 0.00 | 0.00 | 0.00 | 100 | 1019.7 |
| 20260902032707 | 11 | 196 | 0.0 | 0.0 | 0.00 | 0.00 | 0.00 | 100 | 1019.7 |
| 20260902032347 | 11 | 196 | 0.0 | 0.0 | 0.00 | 0.00 | 0.00 | 100 | 1019.9 |
| 20260902032233 | 11 | 196 | 0.0 | 0.0 | 0.00 | 0.00 | 0.00 | 100 | 1019.8 |
| 20260902032140 | 11 | 196 | 0.0 | 0.0 | 0.00 | 0.00 | 0.00 | 100 | 1019.8 |
| 20260902032051 | 11 | 196 | 0.0 | 0.0 | 0.00 | 0.00 | 0.00 | 100 | 1020.0 |
| 20260902032035 | 11 | 196 | 0.0 | 0.0 | 0.00 | 0.00 | 0.00 | 100 | 1019.7 |
| 20260902032020 | 11 | 196 | 0.0 | 0.0 | 0.00 | 0.00 | 0.00 | 100 | 1019.9 |
| 20260902031753 | 11 | 196 | 0.0 | 0.0 | 0.00 | 0.00 | 0.00 | 100 | 1019.8 |
| 20260902031738 | 11 | 196 | 0.0 | 0.0 | 0.00 | 0.00 | 0.00 | 100 | 1020.0 |
| 20260902031722 | 11 | 196 | 0.0 | 0.0 | 0.00 | 0.00 | 0.00 | 100 | 1019.7 |
| 20260902031707 | 11 | 196 | 0.0 | 0.0 | 0.00 | 0.00 | 0.00 | 100 | 1019.9 |
| 20260902031651 | 11 | 196 | 0.0 | 0.0 | 0.00 | 0.00 | 0.00 | 100 | 1019.8 |
| 20260902031419 | 11 | 196 | 0.0 | 0.0 | 0.00 | 0.00 | 0.00 | 100 | 1019.9 |
| 20260902031201 | 11 | 196 | 0.0 | 0.0 | 0.00 | 0.00 | 0.00 | 100 | 1019.9 |
| 20260902031155 | 11 | 196 | 0.0 | 0.0 | 0.00 | 0.00 | 0.00 | 100 | 1019.7 |
| 20260902031139 | 11 | 196 | 0.0 | 0.0 | 0.00 | 0.00 | 0.00 | 100 | 1019.6 |
| 20260902031123 | 11 | 196 | 0.0 | 0.0 | 0.00 | 0.00 | 0.00 | 100 | 1019.7 |
| 20260902030859 | 11 | 196 | 0.0 | 0.0 | 0.00 | 0.00 | 0.00 | 100 | 1019.8 |
| 20260902030828 | 11 | 196 | 0.0 | 0.0 | 0.00 | 0.00 | 0.00 | 100 | 1019.9 |
| 20260902030818 | 11 | 196 | 0.0 | 0.0 | 0.00 | 0.00 | 0.00 | 100 | 1019.8 |
| 20260902030802 | 11 | 196 | 0.0 | 0.0 | 0.00 | 0.00 | 0.00 | 100 | 1019.7 |
| 20260902030746 | 11 | 196 | 0.0 | 0.0 | 0.00 | 0.00 | 0.00 | 100 | 1020.0 |
| 20260902030730 | 11 | 196 | 0.0 | 0.0 | 0.00 | 0.00 | 0.00 | 100 | 1019.8 |
| 20260902030459 | 11 | 196 | 0.0 | 0.0 | 0.00 | 0.00 | 0.00 | 100 | 1019.7 |
| 20260902030229 | 11 | 196 | 0.0 | 0.0 | 0.00 | 0.00 | 0.00 | 100 | 1020.0 |
| 20260902030213 | 11 | 196 | 0.0 | 0.0 | 0.00 | 0.00 | 0.00 | 100 | 1019.9 |
| 20260902030157 | 11 | 196 | 0.0 | 0.0 | 0.00 | 0.00 | 0.00 | 100 | 1019.8 |
| 20260902030141 | 11 | 196 | 0.0 | 0.0 | 0.00 | 0.00 | 0.00 | 100 | 1019.9 |
| 20260902025652 | 11 | 196 | 0.0 | 0.0 | 0.00 | 0.00 | 0.00 | 100 | 1019.9 |
| 20260902025636 | 11 | 196 | 0.0 | 0.0 | 0.00 | 0.00 | 0.00 | 100 | 1019.8 |
| 20260902025620 | 11 | 196 | 0.0 | 0.0 | 0.00 | 0.00 | 0.00 | 100 | 1020.0 |
| 20260902025605 | 11 | 196 | 0.0 | 0.0 | 0.00 | 0.00 | 0.00 | 100 | 1020.0 |
| 20260902025033 | 11 | 196 | 0.0 | 0.0 | 0.00 | 0.00 | 0.00 | 100 | 1019.5 |
| 20260902024934 | 11 | 196 | 0.0 | 0.0 | 0.00 | 0.00 | 0.00 | 100 | 1019.7 |
| 20260902024834 | 11 | 196 | 0.0 | 0.0 | 0.00 | 0.00 | 0.00 | 100 | 1019.8 |
| 20260902024757 | 11 | 196 | 0.0 | 0.0 | 0.00 | 0.00 | 0.00 | 100 | 1020.0 |
| 20260902024747 | 11 | 196 | 0.0 | 0.0 | 0.00 | 0.00 | 0.00 | 100 | 1019.7 |
| 20260902024730 | 11 | 196 | 0.0 | 0.0 | 0.00 | 0.00 | 0.00 | 100 | 1019.8 |
| 20260902024715 | 11 | 196 | 0.0 | 0.0 | 0.00 | 0.00 | 0.00 | 100 | 1019.7 |
| 20260902024426 | 11 | 196 | 0.0 | 0.0 | 0.00 | 0.00 | 0.00 | 100 | 1019.7 |
| 20260902024416 | 11 | 196 | 0.0 | 0.0 | 0.00 | 0.00 | 0.00 | 100 | 1019.9 |
| 20260902024359 | 11 | 196 | 0.0 | 0.0 | 0.00 | 0.00 | 0.00 | 100 | 1019.8 |
| 20260902024124 | 11 | 196 | 0.0 | 0.0 | 0.00 | 0.00 | 0.00 | 100 | 1019.9 |
| 20260902023850 | 11 | 196 | 0.0 | 0.0 | 0.00 | 0.00 | 0.00 | 100 | 1019.7 |
| 20260902023613 | 11 | 196 | 0.0 | 0.0 | 0.00 | 0.00 | 0.00 | 100 | 1019.7 |
| 20260902023557 | 11 | 196 | 0.0 | 0.0 | 0.00 | 0.00 | 0.00 | 100 | 1019.8 |
| 20260902023214 | 11 | 196 | 0.0 | 0.0 | 0.00 | 0.00 | 0.00 | 100 | 1019.9 |
| 20260902023129 | 11 | 195 | 0.0 | 0.0 | 0.00 | 0.00 | 0.00 | 100 | 1020.0 |
| 20260902023029 | 11 | 196 | 0.0 | 0.0 | 0.00 | 0.00 | 0.00 | 100 | 1019.7 |
| 20260902022933 | 11 | 196 | 0.0 | 0.0 | 0.00 | 0.00 | 0.00 | 100 | 1019.8 |
| 20260902022929 | 11 | 196 | 0.0 | 0.0 | 0.00 | 0.00 | 0.00 | 100 | 1020.0 |
| 20260902022919 | 11 | 196 | 0.0 | 0.0 | 0.00 | 0.00 | 0.00 | 100 | 1019.8 |
| 20260902022908 | 11 | 196 | 0.0 | 0.0 | 0.00 | 0.00 | 0.00 | 100 | 1020.1 |
| 20260902022837 | 11 | 196 | 0.0 | 0.0 | 0.00 | 0.00 | 0.00 | 100 | 1019.9 |
| 20260902022813 | 11 | 196 | 0.0 | 0.0 | 0.00 | 0.00 | 0.00 | 100 | 1020.0 |
| 20260902022549 | 11 | 196 | 0.0 | 0.0 | 0.00 | 0.00 | 0.00 | 100 | 1020.0 |
| 20260902022534 | 11 | 196 | 0.0 | 0.0 | 0.00 | 0.00 | 0.00 | 100 | 1019.9 |
| 20260902022518 | 11 | 196 | 0.0 | 0.0 | 0.00 | 0.00 | 0.00 | 100 | 1020.2 |
| 20260902022502 | 11 | 196 | 0.0 | 0.0 | 0.00 | 0.00 | 0.00 | 100 | 1019.8 |
| 20260902022236 | 10 | 196 | 0.0 | 0.0 | 0.00 | 0.00 | 0.00 | 100 | 1020.0 |
| 20260902022221 | 10 | 196 | 0.0 | 0.0 | 0.00 | 0.00 | 0.00 | 100 | 1019.9 |
| 20260902021945 | 11 | 196 | 0.0 | 0.0 | 0.00 | 0.00 | 0.00 | 100 | 1020.1 |
| 20260902021927 | 11 | 196 | 0.0 | 0.0 | 0.00 | 0.00 | 0.00 | 100 | 1019.8 |
| 20260902021617 | 11 | 196 | 0.0 | 0.0 | 0.00 | 0.00 | 0.00 | 100 | 1019.8 |
| 20260902021517 | 11 | 196 | 0.0 | 0.0 | 0.00 | 0.00 | 0.00 | 100 | 1019.9 |
| 20260902021419 | 11 | 196 | 0.0 | 0.0 | 0.00 | 0.00 | 0.00 | 100 | 1020.0 |
| 20260902021327 | 11 | 196 | 0.0 | 0.0 | 0.00 | 0.00 | 0.00 | 100 | 1020.0 |
| 20260902021321 | 11 | 196 | 0.0 | 0.0 | 0.00 | 0.00 | 0.00 | 100 | 1020.0 |
| 20260902021259 | 11 | 196 | 0.0 | 0.0 | 0.00 | 0.00 | 0.00 | 100 | 1020.0 |
| 20260902021242 | 11 | 196 | 0.0 | 0.0 | 0.00 | 0.00 | 0.00 | 100 | 1019.7 |
| 20260902021010 | 11 | 196 | 0.0 | 0.0 | 0.00 | 0.00 | 0.00 | 100 | 1020.2 |
| 20260902021001 | 11 | 196 | 0.0 | 0.0 | 0.00 | 0.00 | 0.00 | 100 | 1020.1 |
| 20260902020945 | 11 | 196 | 0.0 | 0.0 | 0.00 | 0.00 | 0.00 | 100 | 1020.0 |
| 20260902020926 | 11 | 196 | 0.0 | 0.0 | 0.00 | 0.00 | 0.00 | 100 | 1020.2 |
| 20260902020701 | 11 | 196 | 0.0 | 0.0 | 0.00 | 0.00 | 0.00 | 100 | 1019.9 |
| 20260902020646 | 11 | 196 | 0.0 | 0.0 | 0.00 | 0.00 | 0.00 | 100 | 1019.9 |
| 20260902020409 | 11 | 196 | 0.0 | 0.0 | 0.00 | 0.00 | 0.00 | 100 | 1019.9 |
| 20260902020348 | 11 | 196 | 0.0 | 0.0 | 0.00 | 0.00 | 0.00 | 100 | 1020.0 |
| 20260902020317 | 11 | 196 | 0.0 | 0.0 | 0.00 | 0.00 | 0.00 | 100 | 1020.0 |
| 20260902020303 | 11 | 196 | 0.0 | 0.0 | 0.00 | 0.00 | 0.00 | 100 | 1020.0 |
| 20260902020028 | 11 | 196 | 0.0 | 0.0 | 0.00 | 0.00 | 0.00 | 100 | 1020.1 |
| 20260902015758 | 11 | 196 | 0.0 | 0.0 | 0.00 | 0.00 | 0.00 | 100 | 1020.0 |
| 20260902015742 | 11 | 196 | 0.0 | 0.0 | 0.00 | 0.00 | 0.00 | 100 | 1019.9 |
| 20260902015725 | 11 | 196 | 0.0 | 0.0 | 0.00 | 0.00 | 0.00 | 100 | 1020.0 |
| 20260902015500 | 11 | 196 | 0.0 | 0.0 | 0.00 | 0.00 | 0.00 | 100 | 1019.9 |
| 20260902015444 | 11 | 196 | 0.0 | 0.0 | 0.00 | 0.00 | 0.00 | 100 | 1020.0 |
| 20260902015426 | 11 | 196 | 0.0 | 0.0 | 0.00 | 0.00 | 0.00 | 100 | 1020.0 |
| 20260902015117 | 11 | 196 | 0.0 | 0.0 | 0.00 | 0.00 | 0.00 | 100 | 1019.9 |
| 20260902015017 | 11 | 196 | 0.0 | 0.0 | 0.00 | 0.00 | 0.00 | 100 | 1020.0 |
| 20260902014918 | 11 | 196 | 0.0 | 0.0 | 0.00 | 0.00 | 0.00 | 100 | 1020.0 |
| 20260902014818 | 11 | 196 | 0.0 | 0.0 | 0.00 | 0.00 | 0.00 | 100 | 1019.9 |
| 20260902014717 | 11 | 196 | 0.0 | 0.0 | 0.00 | 0.00 | 0.00 | 100 | 1020.0 |
| 20260902014617 | 11 | 196 | 0.0 | 0.0 | 0.00 | 0.00 | 0.00 | 100 | 1020.0 |
| 20260902014518 | 11 | 196 | 0.0 | 0.0 | 0.00 | 0.00 | 0.00 | 100 | 1020.1 |
| 20260902014417 | 11 | 196 | 0.0 | 0.0 | 0.00 | 0.00 | 0.00 | 100 | 1020.0 |
| 20260902014400 | 11 | 196 | 0.0 | 0.0 | 0.00 | 0.00 | 0.00 | 100 | 1020.0 |
| 20260902014338 | 11 | 196 | 0.0 | 0.0 | 0.00 | 0.00 | 0.00 | 100 | 1020.0 |
| 20260902014016 | 11 | 196 | 0.0 | 0.0 | 0.00 | 0.00 | 0.00 | 100 | 1019.9 |
| 20260902013917 | 11 | 196 | 0.0 | 0.0 | 0.00 | 0.00 | 0.00 | 100 | 1020.1 |
| 20260902013818 | 11 | 196 | 0.0 | 0.0 | 0.00 | 0.00 | 0.00 | 100 | 1020.2 |
| 20260902013717 | 11 | 196 | 0.0 | 0.0 | 0.00 | 0.00 | 0.00 | 100 | 1020.0 |
| 20260902013653 | 11 | 196 | 0.0 | 0.0 | 0.00 | 0.00 | 0.00 | 100 | 1020.2 |
| 20260902013638 | 11 | 196 | 0.0 | 0.0 | 0.00 | 0.00 | 0.00 | 100 | 1020.2 |
| 20260902013318 | 11 | 196 | 0.0 | 0.0 | 0.00 | 0.00 | 0.00 | 100 | 1020.0 |
| 20260902013230 | 11 | 196 | 0.0 | 0.0 | 0.00 | 0.00 | 0.00 | 100 | 1020.1 |
| 20260902013116 | 11 | 196 | 0.0 | 0.0 | 0.00 | 0.00 | 0.00 | 100 | 1020.1 |
| 20260902013019 | 11 | 196 | 0.0 | 0.0 | 0.00 | 0.00 | 0.00 | 100 | 1020.1 |
| 20260902013002 | 11 | 196 | 0.0 | 0.0 | 0.00 | 0.00 | 0.00 | 100 | 1020.2 |
| 20260902012946 | 11 | 196 | 0.0 | 0.0 | 0.00 | 0.00 | 0.00 | 100 | 1020.0 |
| 20260902012718 | 11 | 196 | 0.0 | 0.0 | 0.00 | 0.00 | 0.00 | 100 | 1020.3 |
| 20260902012618 | 11 | 196 | 0.0 | 0.0 | 0.00 | 0.00 | 0.00 | 100 | 1020.1 |
| 20260902012517 | 11 | 196 | 0.0 | 0.0 | 0.00 | 0.00 | 0.00 | 100 | 1020.2 |
| 20260902012417 | 11 | 196 | 0.0 | 0.0 | 0.00 | 0.00 | 0.00 | 100 | 1020.2 |
| 20260902012317 | 11 | 196 | 0.0 | 0.0 | 0.00 | 0.00 | 0.00 | 100 | 1020.0 |
| 20260902012218 | 11 | 196 | 0.0 | 0.0 | 0.00 | 0.00 | 0.00 | 100 | 1019.9 |
| 20260902012118 | 11 | 196 | 0.0 | 0.0 | 0.00 | 0.00 | 0.00 | 100 | 1020.0 |
| 20260902012057 | 11 | 196 | 0.0 | 0.0 | 0.00 | 0.00 | 0.00 | 100 | 1020.1 |
| 20260902012041 | 11 | 195 | 0.0 | 0.0 | 0.00 | 0.00 | 0.00 | 100 | 1020.0 |
| 20260902012025 | 11 | 195 | 0.0 | 0.0 | 0.00 | 0.00 | 0.00 | 100 | 1020.1 |
| 20260902012001 | 11 | 195 | 0.0 | 0.0 | 0.00 | 0.00 | 0.00 | 100 | 1020.0 |
| 20260902011945 | 11 | 195 | 0.0 | 0.0 | 0.00 | 0.00 | 0.00 | 100 | 1019.9 |
| 20260902011929 | 11 | 196 | 0.0 | 0.0 | 0.00 | 0.00 | 0.00 | 100 | 1020.0 |
| 20260902011914 | 11 | 196 | 0.0 | 0.0 | 0.00 | 0.00 | 0.00 | 100 | 1020.0 |
| 20260902011857 | 11 | 196 | 0.0 | 0.0 | 0.00 | 0.00 | 0.00 | 100 | 1019.9 |
| 20260902011630 | 11 | 196 | 0.0 | 0.0 | 0.00 | 0.00 | 0.00 | 100 | 1020.1 |
| 20260902010818 | 11 | 196 | 0.0 | 0.0 | 0.00 | 0.00 | 0.00 | 99 | 1019.9 |
| 20260902010717 | 11 | 196 | 0.0 | 0.0 | 0.00 | 0.00 | 0.00 | 99 | 1019.9 |
| 20260902010617 | 11 | 196 | 0.0 | 0.0 | 0.00 | 0.00 | 0.00 | 99 | 1020.0 |
| 20260902010517 | 11 | 196 | 0.0 | 0.0 | 0.00 | 0.00 | 0.00 | 99 | 1019.9 |
| 20260902010417 | 11 | 196 | 0.0 | 0.0 | 0.00 | 0.00 | 0.00 | 99 | 1020.0 |
| 20260902010350 | 11 | 196 | 0.0 | 0.0 | 0.00 | 0.00 | 0.00 | 99 | 1019.9 |
| 20260902010327 | 11 | 196 | 0.0 | 0.0 | 0.00 | 0.00 | 0.00 | 99 | 1019.9 |
| 20260902010310 | 11 | 196 | 0.0 | 0.0 | 0.00 | 0.00 | 0.00 | 99 | 1019.8 |
| 20260902010036 | 11 | 196 | 0.0 | 0.0 | 0.00 | 0.00 | 0.00 | 99 | 1019.8 |
| 20260902010020 | 11 | 196 | 0.0 | 0.0 | 0.00 | 0.00 | 0.00 | 99 | 1019.8 |
| 20260902005752 | 11 | 196 | 0.0 | 0.0 | 0.00 | 0.00 | 0.00 | 99 | 1020.0 |
| 20260902005738 | 11 | 196 | 0.0 | 0.0 | 0.00 | 0.00 | 0.00 | 99 | 1020.0 |
| 20260902005417 | 11 | 196 | 0.0 | 0.0 | 0.00 | 0.00 | 0.00 | 99 | 1019.9 |
| 20260902005316 | 11 | 196 | 0.0 | 0.0 | 0.00 | 0.00 | 0.00 | 99 | 1020.0 |
| 20260902005218 | 11 | 196 | 0.0 | 0.0 | 0.00 | 0.00 | 0.00 | 99 | 1019.9 |
| 20260902005153 | 11 | 196 | 0.0 | 0.0 | 0.00 | 0.00 | 0.00 | 99 | 1020.0 |
| 20260902005136 | 11 | 196 | 0.0 | 0.0 | 0.00 | 0.00 | 0.00 | 99 | 1020.1 |
| 20260902004818 | 11 | 196 | 0.0 | 0.0 | 0.00 | 0.00 | 0.00 | 99 | 1020.1 |
| 20260902004716 | 11 | 196 | 0.0 | 0.0 | 0.00 | 0.00 | 0.00 | 99 | 1019.8 |
| 20260902004358 | 11 | 196 | 0.0 | 0.0 | 0.00 | 0.00 | 0.00 | 99 | 1020.2 |
| 20260902004327 | 11 | 196 | 0.0 | 0.0 | 0.00 | 0.00 | 0.00 | 99 | 1019.9 |
| 20260902004317 | 11 | 196 | 0.0 | 0.0 | 0.00 | 0.00 | 0.00 | 99 | 1020.0 |
| 20260902003958 | 11 | 196 | 0.0 | 0.0 | 0.00 | 0.00 | 0.00 | 99 | 1020.1 |
| 20260902003858 | 11 | 196 | 0.0 | 0.0 | 0.00 | 0.00 | 0.00 | 99 | 1020.0 |
| 20260902003741 | 11 | 196 | 0.0 | 0.0 | 0.00 | 0.00 | 0.00 | 99 | 1019.9 |
| 20260902003656 | 11 | 196 | 0.0 | 0.0 | 0.00 | 0.00 | 0.00 | 99 | 1020.0 |
| 20260902003645 | 12 | 196 | 0.0 | 0.0 | 0.00 | 0.00 | 0.00 | 98 | 1020.0 |
| 20260902003637 | 11 | 196 | 0.0 | 0.0 | 0.00 | 0.00 | 0.00 | 98 | 1019.8 |
| 20260902003633 | 11 | 196 | 0.0 | 0.0 | 0.00 | 0.00 | 0.00 | 98 | 1020.0 |
| 20260902003624 | 11 | 196 | 0.0 | 0.0 | 0.00 | 0.00 | 0.00 | 99 | 1019.9 |
| 20260902003608 | 11 | 196 | 0.0 | 0.0 | 0.00 | 0.00 | 0.00 | 99 | 1020.0 |
| 20260902003552 | 11 | 196 | 0.0 | 0.0 | 0.00 | 0.00 | 0.00 | 99 | 1019.9 |
| 20260902003316 | 11 | 196 | 0.0 | 0.0 | 0.00 | 0.00 | 0.00 | 99 | 1019.9 |
| 20260902003306 | 11 | 196 | 0.0 | 0.0 | 0.00 | 0.00 | 0.00 | 99 | 1020.0 |
| 20260902003250 | 11 | 196 | 0.0 | 0.0 | 0.00 | 0.00 | 0.00 | 99 | 1019.9 |
| 20260902003234 | 11 | 196 | 0.0 | 0.0 | 0.00 | 0.00 | 0.00 | 99 | 1019.9 |
| 20260902003219 | 11 | 196 | 0.0 | 0.0 | 0.00 | 0.00 | 0.00 | 99 | 1019.9 |
| 20260902003151 | 11 | 196 | 0.0 | 0.0 | 0.00 | 0.00 | 0.00 | 99 | 1019.9 |
| 20260902003139 | 11 | 196 | 0.0 | 0.0 | 0.00 | 0.00 | 0.00 | 99 | 1019.9 |
| 20260902003123 | 11 | 196 | 0.0 | 0.0 | 0.00 | 0.00 | 0.00 | 99 | 1019.8 |
| 20260902003107 | 11 | 196 | 0.0 | 0.0 | 0.00 | 0.00 | 0.00 | 99 | 1019.9 |
| 20260902002820 | 11 | 196 | 0.0 | 0.0 | 0.00 | 0.00 | 0.00 | 99 | 1020.2 |
| 20260902002809 | 11 | 196 | 0.0 | 0.0 | 0.00 | 0.00 | 0.00 | 99 | 1020.1 |
| 20260902002754 | 11 | 196 | 0.0 | 0.0 | 0.00 | 0.00 | 0.00 | 99 | 1019.9 |
| 20260902002246 | 11 | 196 | 0.0 | 0.0 | 0.00 | 0.00 | 0.00 | 99 | 1020.0 |
| 20260902002234 | 11 | 196 | 0.0 | 0.0 | 0.00 | 0.00 | 0.00 | 99 | 1019.9 |
| 20260902002218 | 11 | 196 | 0.0 | 0.0 | 0.00 | 0.00 | 0.00 | 99 | 1019.6 |
| 20260902002202 | 11 | 196 | 0.0 | 0.0 | 0.00 | 0.00 | 0.00 | 99 | 1020.0 |
| 20260902002146 | 11 | 196 | 0.0 | 0.0 | 0.00 | 0.00 | 0.00 | 99 | 1019.9 |
| 20260902002119 | 11 | 196 | 0.0 | 0.0 | 0.00 | 0.00 | 0.00 | 99 | 1019.8 |
| 20260902001847 | 11 | 196 | 0.0 | 0.0 | 0.00 | 0.00 | 0.00 | 99 | 1019.6 |
| 20260902001831 | 11 | 196 | 0.0 | 0.0 | 0.00 | 0.00 | 0.00 | 99 | 1019.8 |
| 20260902001816 | 11 | 196 | 0.0 | 0.0 | 0.00 | 0.00 | 0.00 | 99 | 1020.1 |
| 20260902001748 | 11 | 196 | 0.0 | 0.0 | 0.00 | 0.00 | 0.00 | 98 | 1019.9 |
| 20260902001515 | 11 | 196 | 0.0 | 0.0 | 0.00 | 0.00 | 0.00 | 98 | 1019.7 |
| 20260902001238 | 11 | 196 | 0.0 | 0.0 | 0.00 | 0.00 | 0.00 | 98 | 1019.9 |
| 20260902001222 | 11 | 196 | 0.0 | 0.0 | 0.00 | 0.00 | 0.00 | 98 | 1019.8 |
| 20260902000736 | 11 | 196 | 0.0 | 0.0 | 0.00 | 0.00 | 0.00 | 98 | 1020.0 |
| 20260902000241 | 11 | 196 | 0.0 | 0.0 | 0.00 | 0.00 | 0.00 | 98 | 1020.0 |
| 20260902000010 | 12 | 196 | 0.0 | 0.0 | 0.00 | 0.00 | 0.00 | 98 | 1020.0 |
| 20260901235954 | 12 | 196 | 0.0 | 0.0 | 0.00 | 0.00 | 0.00 | 98 | 1020.1 |
| 20260901235938 | 11 | 196 | 0.0 | 0.0 | 0.00 | 0.00 | 0.00 | 98 | 1020.1 |
| 20260901235157 | 12 | 196 | 0.0 | 0.0 | 0.00 | 0.00 | 0.00 | 98 | 1020.0 |
| 20260901235057 | 12 | 196 | 0.0 | 0.0 | 0.00 | 0.00 | 0.00 | 98 | 1020.0 |
| 20260901234958 | 12 | 196 | 0.0 | 0.0 | 0.00 | 0.00 | 0.00 | 98 | 1020.0 |
| 20260901234858 | 12 | 196 | 0.0 | 0.0 | 0.00 | 0.00 | 0.00 | 98 | 1019.9 |
| 20260901234741 | 12 | 196 | 0.0 | 0.0 | 0.00 | 0.00 | 0.00 | 98 | 1020.0 |
| 20260901234657 | 12 | 196 | 0.0 | 0.0 | 0.00 | 0.00 | 0.00 | 98 | 1019.9 |
| 20260901234557 | 12 | 196 | 0.0 | 0.0 | 0.00 | 0.00 | 0.00 | 98 | 1019.9 |
| 20260901234533 | 12 | 196 | 0.0 | 0.0 | 0.00 | 0.00 | 0.00 | 98 | 1019.8 |
| 20260901234517 | 12 | 196 | 0.0 | 0.0 | 0.00 | 0.00 | 0.00 | 98 | 1020.1 |
| 20260901234241 | 12 | 196 | 0.0 | 0.0 | 0.00 | 0.00 | 0.00 | 98 | 1019.8 |
| 20260901234157 | 12 | 196 | 0.0 | 0.0 | 0.00 | 0.00 | 0.00 | 98 | 1020.0 |
| 20260901234057 | 12 | 196 | 0.0 | 0.0 | 0.00 | 0.00 | 0.00 | 98 | 1019.8 |
| 20260901233957 | 12 | 196 | 0.0 | 0.0 | 0.00 | 0.00 | 0.00 | 98 | 1019.9 |
| 20260901233857 | 12 | 196 | 0.0 | 0.0 | 0.00 | 0.00 | 0.00 | 98 | 1019.8 |
| 20260901233821 | 12 | 196 | 0.0 | 0.0 | 0.00 | 0.00 | 0.00 | 98 | 1019.8 |
| 20260901233808 | 12 | 196 | 0.0 | 0.0 | 0.00 | 0.00 | 0.00 | 98 | 1019.8 |
| 20260901233751 | 12 | 196 | 0.0 | 0.0 | 0.00 | 0.00 | 0.00 | 98 | 1019.7 |
| 20260901233736 | 12 | 196 | 0.0 | 0.0 | 0.00 | 0.00 | 0.00 | 98 | 1019.8 |
| 20260901233447 | 12 | 196 | 0.0 | 0.0 | 0.00 | 0.00 | 0.00 | 98 | 1019.7 |
| 20260901233436 | 12 | 196 | 0.0 | 0.0 | 0.00 | 0.00 | 0.00 | 98 | 1019.9 |